BAW982 SBGR-EGLL

Flight info

Callsign BAW982
Flight time N/A
Altitude 33000
Route VUMEV UZ14 NITLU UZ3 UTLEV UZ88 PABES UZ4 UKAVA UZ51 TIPNU/N0503F350 UZ51 MOVGA DCT BIKOM/M085F370 DCT ULTEM DCT 25N028W 30N026W 35N024W 40N020W/M085F390 DCT GONAN DCT TAMEL DCT EVBAK DCT GAPLI/N0488F390 DCT SIDDI DCT DAWLY/N0464F230 N17 OTMET
Aircraft A35K/H-SDE2E3GHIJ3J4J5LM1ORWXY/LB1D1

Departure

Time N/A
Airport São Paulo/Guarulhos–Governor André Franco Montoro International Airport (SBGR)

Arrival

Time 2026-05-05 15:15
Airport London Heathrow Airport (EGLL)
Time Latitude Longitude Altitude Speed Heading
2026-05-05 05:19 -18.24591 -43.69494 33223 ft 515 kts
2026-05-05 05:20 -18.21048 -43.68866 33221 ft 515 kts
2026-05-05 05:20 -18.13965 -43.67626 33211 ft 514 kts
2026-05-05 05:21 -18.06971 -43.67584 33220 ft 505 kts 350°
2026-05-05 05:21 -17.99999 -43.68485 33215 ft 504 kts 348°
2026-05-05 05:22 -17.93044 -43.69538 33216 ft 504 kts 347°
2026-05-05 05:22 -17.86096 -43.70591 33215 ft 504 kts 348°
2026-05-05 05:23 -17.79179 -43.71616 33210 ft 504 kts 348°
2026-05-05 05:23 -17.72213 -43.72636 33202 ft 505 kts 348°
2026-05-05 05:24 -17.65251 -43.73653 33206 ft 505 kts 348°
2026-05-05 05:24 -17.58331 -43.74663 33199 ft 505 kts 348°
2026-05-05 05:25 -17.51362 -43.75680 33192 ft 505 kts 348°
2026-05-05 05:25 -17.44391 -43.76697 33193 ft 505 kts 348°
2026-05-05 05:26 -17.37464 -43.77707 33190 ft 505 kts 348°
2026-05-05 05:26 -17.30502 -43.78721 33186 ft 505 kts 348°
2026-05-05 05:27 -17.23529 -43.79736 33188 ft 505 kts 348°
2026-05-05 05:27 -17.13072 -43.81257 33191 ft 505 kts 348°
2026-05-05 05:28 -17.06152 -43.82262 33197 ft 505 kts 348°
2026-05-05 05:28 -16.99159 -43.83278 33191 ft 505 kts 348°
2026-05-05 05:29 -16.92181 -43.84291 33179 ft 506 kts 348°
2026-05-05 05:29 -16.85250 -43.85296 33221 ft 506 kts 348°
2026-05-05 05:30 -16.78258 -43.86309 33238 ft 507 kts 348°
2026-05-05 05:30 -16.71265 -43.87321 33233 ft 507 kts 348°
2026-05-05 05:31 -16.64255 -43.88334 33239 ft 507 kts 348°
2026-05-05 05:31 -16.57253 -43.89347 33218 ft 507 kts 348°
2026-05-05 05:32 -16.50290 -43.90353 33214 ft 508 kts 348°
2026-05-05 05:32 -16.43271 -43.91366 33192 ft 508 kts 348°
2026-05-05 05:33 -16.36253 -43.92378 33170 ft 508 kts 348°
2026-05-05 05:33 -16.29287 -43.93382 33159 ft 508 kts 348°
2026-05-05 05:34 -16.22275 -43.94392 33169 ft 508 kts 348°
2026-05-05 05:34 -16.15253 -43.95402 33169 ft 508 kts 348°
2026-05-05 05:35 -16.08242 -43.96412 33164 ft 508 kts 348°
2026-05-05 05:35 -16.01277 -43.97413 33164 ft 509 kts 348°
2026-05-05 05:36 -15.94247 -43.98423 33161 ft 509 kts 348°
2026-05-05 05:36 -15.87210 -43.99432 33153 ft 510 kts 348°
2026-05-05 05:37 -15.80176 -44.00440 33152 ft 509 kts 348°
2026-05-05 05:37 -15.73180 -44.01443 33151 ft 510 kts 348°
2026-05-05 05:38 -15.66139 -44.02452 33148 ft 510 kts 348°
2026-05-05 05:38 -15.59096 -44.03461 33143 ft 511 kts 348°
2026-05-05 05:39 -15.52049 -44.04466 33134 ft 511 kts 348°
2026-05-05 05:39 -15.45028 -44.05470 33143 ft 512 kts 348°
2026-05-05 05:40 -15.37958 -44.06480 33141 ft 512 kts 348°
2026-05-05 05:40 -15.30889 -44.07489 33139 ft 512 kts 348°
2026-05-05 05:41 -15.23823 -44.08497 33136 ft 512 kts 348°
2026-05-05 05:41 -15.16791 -44.09500 33138 ft 513 kts 348°
2026-05-05 05:42 -15.09647 -44.10083 33135 ft 516 kts 354°
2026-05-05 05:42 -15.03660 -44.10207 33136 ft 517 kts 355°
2026-05-05 05:43 -14.96453 -44.10280 33133 ft 518 kts 355°
2026-05-05 05:43 -14.89287 -44.10348 33131 ft 518 kts 355°
2026-05-05 05:44 -14.82075 -44.10427 33135 ft 518 kts 355°
2026-05-05 05:44 -14.74862 -44.10514 33117 ft 518 kts 355°
2026-05-05 05:45 -14.67639 -44.10602 33128 ft 519 kts 355°
2026-05-05 05:45 -14.60453 -44.10689 33129 ft 519 kts 355°
2026-05-05 05:46 -14.53222 -44.10775 33128 ft 519 kts 355°
2026-05-05 05:46 -14.45986 -44.10862 33121 ft 520 kts 355°
2026-05-05 05:47 -14.38782 -44.10949 33123 ft 521 kts 355°
2026-05-05 05:47 -14.31533 -44.11036 33122 ft 521 kts 355°
2026-05-05 05:48 -14.24277 -44.11123 33118 ft 521 kts 355°
2026-05-05 05:48 -14.17021 -44.11217 33115 ft 522 kts 355°
2026-05-05 05:49 -14.09794 -44.11306 33121 ft 522 kts 355°
2026-05-05 05:49 -14.02515 -44.11395 33116 ft 522 kts 355°
2026-05-05 05:50 -13.95240 -44.11485 33122 ft 522 kts 355°
2026-05-05 05:50 -13.87943 -44.11577 33117 ft 524 kts 355°
2026-05-05 05:51 -13.80682 -44.11667 33115 ft 524 kts 355°
2026-05-05 05:51 -13.73378 -44.11758 33116 ft 524 kts 355°
2026-05-05 05:52 -13.66078 -44.11848 33112 ft 524 kts 355°
2026-05-05 05:52 -13.58772 -44.11939 33107 ft 524 kts 355°
2026-05-05 05:53 -13.51526 -44.12030 33116 ft 524 kts 355°
2026-05-05 05:53 -13.44217 -44.12121 33101 ft 524 kts 355°
2026-05-05 05:54 -13.36905 -44.12212 33110 ft 525 kts 355°
2026-05-05 05:54 -13.29626 -44.12302 33102 ft 526 kts 355°
2026-05-05 05:55 -13.22301 -44.12400 33103 ft 526 kts 355°
2026-05-05 05:55 -13.14973 -44.12504 33102 ft 526 kts 355°
2026-05-05 05:56 -13.07643 -44.12608 33104 ft 527 kts 355°
2026-05-05 05:56 -13.00301 -44.12712 33105 ft 527 kts 355°
2026-05-05 05:57 -12.93009 -44.12813 33092 ft 527 kts 355°
2026-05-05 05:57 -12.85657 -44.12877 33098 ft 528 kts 356°
2026-05-05 05:58 -12.78304 -44.12892 33102 ft 528 kts 356°
2026-05-05 05:58 -12.70952 -44.12912 33097 ft 528 kts 356°
2026-05-05 05:59 -12.63641 -44.12941 33092 ft 528 kts 356°
2026-05-05 05:59 -12.56271 -44.13002 33091 ft 529 kts 355°
2026-05-05 06:00 -12.48904 -44.13099 33086 ft 529 kts 355°
2026-05-05 06:00 -12.41530 -44.13195 33087 ft 529 kts 355°
2026-05-05 06:01 -12.34198 -44.13286 33080 ft 530 kts 355°
2026-05-05 06:01 -12.26802 -44.13373 33074 ft 531 kts 355°
2026-05-05 06:02 -12.19400 -44.13460 33064 ft 531 kts 355°
2026-05-05 06:02 -12.12060 -44.13551 33063 ft 531 kts 356°
2026-05-05 06:03 -12.04653 -44.13632 33056 ft 531 kts 356°
2026-05-05 06:03 -11.97244 -44.13712 33050 ft 531 kts 356°
2026-05-05 06:04 -11.89884 -44.13793 33053 ft 531 kts 356°
2026-05-05 06:04 -11.82484 -44.13877 33048 ft 531 kts 356°
2026-05-05 06:05 -11.75080 -44.13960 33044 ft 531 kts 356°
2026-05-05 06:05 -11.67724 -44.14043 33044 ft 531 kts 356°
2026-05-05 06:06 -11.60336 -44.14127 33043 ft 531 kts 356°
2026-05-05 06:06 -11.52934 -44.14210 33040 ft 530 kts 356°
2026-05-05 06:07 -11.45540 -44.14293 33043 ft 530 kts 356°
2026-05-05 06:07 -11.38195 -44.14375 33041 ft 530 kts 356°
2026-05-05 06:08 -11.30804 -44.14459 33041 ft 531 kts 357°
2026-05-05 06:08 -11.23399 -44.14542 33042 ft 531 kts 357°
2026-05-05 06:09 -11.16049 -44.14625 33036 ft 531 kts 357°
2026-05-05 06:09 -11.08656 -44.14709 33037 ft 531 kts 357°
2026-05-05 06:10 -11.01259 -44.14787 33044 ft 531 kts 357°
2026-05-05 06:10 -10.93853 -44.14865 33043 ft 531 kts 357°
2026-05-05 06:11 -10.86508 -44.14943 33041 ft 531 kts 357°
2026-05-05 06:11 -10.79116 -44.15031 33045 ft 531 kts 357°
2026-05-05 06:12 -10.71712 -44.15115 33046 ft 531 kts 357°
2026-05-05 06:12 -10.64307 -44.15200 33046 ft 531 kts 357°
2026-05-05 06:13 -10.56950 -44.15285 33039 ft 531 kts 357°
2026-05-05 06:13 -10.49542 -44.15374 33040 ft 531 kts 357°
2026-05-05 06:14 -10.42133 -44.15458 33042 ft 532 kts 357°
2026-05-05 06:14 -10.34770 -44.15536 33036 ft 532 kts 357°
2026-05-05 06:15 -10.27359 -44.15616 33032 ft 531 kts 357°
2026-05-05 06:15 -10.19961 -44.15697 33034 ft 530 kts 357°
2026-05-05 06:16 -10.12615 -44.15779 33031 ft 530 kts 357°
2026-05-05 06:16 -10.05222 -44.15861 33032 ft 530 kts 357°
2026-05-05 06:17 -9.97832 -44.15943 33029 ft 529 kts 357°
2026-05-05 06:17 -9.90503 -44.16024 33029 ft 529 kts 357°
2026-05-05 06:18 -9.83127 -44.16106 33032 ft 529 kts 357°
2026-05-05 06:18 -9.75754 -44.16186 33028 ft 529 kts 358°
2026-05-05 06:19 -9.68429 -44.16267 33028 ft 529 kts 358°
2026-05-05 06:19 -9.61058 -44.16347 33026 ft 529 kts 358°
2026-05-05 06:20 -9.53684 -44.16427 33025 ft 529 kts 358°
2026-05-05 06:20 -9.46360 -44.16508 33023 ft 529 kts 358°
2026-05-05 06:21 -9.38990 -44.16591 33023 ft 529 kts 358°
2026-05-05 06:21 -9.31613 -44.16673 33015 ft 529 kts 358°
2026-05-05 06:22 -9.24279 -44.16749 33015 ft 529 kts 358°
2026-05-05 06:22 -9.16915 -44.16828 33013 ft 529 kts 358°
2026-05-05 06:23 -9.09539 -44.16908 33012 ft 529 kts 358°
2026-05-05 06:23 -9.02213 -44.16987 33011 ft 529 kts 358°
2026-05-05 06:24 -8.94858 -44.16562 33010 ft 530 kts 11°
2026-05-05 06:24 -8.87954 -44.13974 33009 ft 530 kts 28°
2026-05-05 06:25 -8.81561 -44.10340 33010 ft 531 kts 31°
2026-05-05 06:25 -8.75196 -44.06514 33010 ft 531 kts 31°
2026-05-05 06:26 -8.68827 -44.02706 33011 ft 530 kts 31°
2026-05-05 06:26 -8.62503 -43.98967 33010 ft 528 kts 31°
2026-05-05 06:27 -8.52966 -43.93355 33007 ft 528 kts 30°
2026-05-05 06:28 -8.46609 -43.89617 33007 ft 528 kts 31°
2026-05-05 06:28 -8.40292 -43.85903 33007 ft 528 kts 31°
2026-05-05 06:29 -8.33927 -43.82161 33008 ft 528 kts 30°
2026-05-05 06:29 -8.27563 -43.78421 33007 ft 528 kts 30°
2026-05-05 06:30 -8.21243 -43.74710 33004 ft 528 kts 31°
2026-05-05 06:30 -8.14899 -43.70985 33004 ft 525 kts 31°
2026-05-05 06:31 -8.08579 -43.67275 33002 ft 525 kts 31°
2026-05-05 06:31 -8.02299 -43.63589 33002 ft 525 kts 31°
2026-05-05 06:32 -7.95974 -43.59880 32997 ft 525 kts 31°
2026-05-05 06:32 -7.89703 -43.56203 32999 ft 523 kts 31°
2026-05-05 06:33 -7.84420 -43.53106 33000 ft 523 kts 31°
2026-05-05 06:33 -7.78153 -43.49433 33150 ft 522 kts 31°
2026-05-05 06:33 -7.75025 -43.47602 33598 ft 518 kts 31°
2026-05-05 06:34 -7.71914 -43.45781 34022 ft 515 kts 31°
2026-05-05 06:34 -7.68814 -43.43964 34297 ft 514 kts 30°
2026-05-05 06:34 -7.65724 -43.42153 34531 ft 514 kts 30°
2026-05-05 06:34 -7.62670 -43.40364 34759 ft 513 kts 30°
2026-05-05 06:35 -7.59573 -43.38551 34955 ft 514 kts 30°
2026-05-05 06:35 -7.53327 -43.34894 34996 ft 519 kts 30°
2026-05-05 06:36 -7.47113 -43.31259 34991 ft 519 kts 30°
2026-05-05 06:36 -7.40852 -43.27597 34989 ft 519 kts 30°
2026-05-05 06:37 -7.34591 -43.23935 34993 ft 519 kts 30°
2026-05-05 06:37 -7.28370 -43.20299 34988 ft 519 kts 30°
2026-05-05 06:38 -7.22110 -43.16640 34989 ft 519 kts 30°
2026-05-05 06:38 -7.15845 -43.12980 34986 ft 520 kts 30°
2026-05-05 06:39 -7.09578 -43.09320 34980 ft 520 kts 30°
2026-05-05 06:39 -7.03346 -43.05682 34983 ft 520 kts 30°
2026-05-05 06:40 -6.97076 -43.02022 34978 ft 520 kts 30°
2026-05-05 06:40 -6.90843 -42.98385 34982 ft 521 kts 30°
2026-05-05 06:41 -6.84559 -42.94720 34982 ft 521 kts 29°
2026-05-05 06:41 -6.78276 -42.91056 34980 ft 521 kts 29°
2026-05-05 06:42 -6.71988 -42.87391 34976 ft 521 kts 29°
2026-05-05 06:42 -6.65703 -42.83728 34974 ft 521 kts 29°
2026-05-05 06:43 -6.59455 -42.80088 34976 ft 522 kts 29°
2026-05-05 06:43 -6.53163 -42.76423 34975 ft 522 kts 29°
2026-05-05 06:44 -6.46870 -42.72759 34974 ft 522 kts 29°
2026-05-05 06:44 -6.40623 -42.69123 34973 ft 522 kts 29°
2026-05-05 06:45 -6.34328 -42.65461 34974 ft 522 kts 29°
2026-05-05 06:45 -6.28040 -42.61805 34974 ft 522 kts 29°
2026-05-05 06:46 -6.21741 -42.58143 34971 ft 522 kts 29°
2026-05-05 06:46 -6.15487 -42.54508 34965 ft 522 kts 29°
2026-05-05 06:47 -6.09188 -42.50848 34969 ft 523 kts 29°
2026-05-05 06:47 -6.02881 -42.47186 34965 ft 523 kts 29°
2026-05-05 06:48 -5.96574 -42.43523 34967 ft 523 kts 29°
2026-05-05 06:48 -5.90310 -42.39888 34963 ft 523 kts 29°
2026-05-05 06:49 -5.84005 -42.36229 34956 ft 523 kts 29°
2026-05-05 06:49 -5.77694 -42.32567 34958 ft 523 kts 29°
2026-05-05 06:50 -5.71433 -42.28935 34955 ft 523 kts 29°
2026-05-05 06:50 -5.65129 -42.25280 34958 ft 522 kts 29°
2026-05-05 06:51 -5.58821 -42.21622 34959 ft 523 kts 29°
2026-05-05 06:51 -5.52500 -42.17959 34952 ft 524 kts 29°
2026-05-05 06:52 -5.46226 -42.14324 34951 ft 524 kts 29°
2026-05-05 06:52 -5.39907 -42.10663 34952 ft 524 kts 29°
2026-05-05 06:53 -5.33589 -42.07004 34949 ft 523 kts 29°
2026-05-05 06:53 -5.27274 -42.03350 34949 ft 523 kts 29°
2026-05-05 06:54 -5.21005 -41.99713 34952 ft 523 kts 29°
2026-05-05 06:54 -5.14698 -41.96055 34953 ft 522 kts 29°
2026-05-05 06:55 -5.08395 -41.92403 34952 ft 522 kts 28°
2026-05-05 06:55 -5.02145 -41.88782 34952 ft 521 kts 28°
2026-05-05 06:56 -4.95854 -41.85140 34955 ft 521 kts 28°
2026-05-05 06:56 -4.89566 -41.81500 34955 ft 521 kts 28°
2026-05-05 06:57 -4.83315 -41.77881 34955 ft 521 kts 28°
2026-05-05 06:57 -4.77046 -41.74252 34957 ft 518 kts 28°
2026-05-05 06:58 -4.70798 -41.70641 34957 ft 517 kts 28°
2026-05-05 06:58 -4.64549 -41.67029 34958 ft 517 kts 28°
2026-05-05 06:59 -4.58352 -41.63445 34958 ft 517 kts 28°
2026-05-05 06:59 -4.52107 -41.59834 34958 ft 518 kts 28°
2026-05-05 07:00 -4.45860 -41.56225 34960 ft 518 kts 28°
2026-05-05 07:00 -4.39617 -41.52618 34958 ft 518 kts 28°
2026-05-05 07:01 -4.33367 -41.49008 34957 ft 518 kts 28°
2026-05-05 07:01 -4.27165 -41.45426 34955 ft 517 kts 28°
2026-05-05 07:02 -4.20919 -41.41820 34955 ft 518 kts 28°
2026-05-05 07:02 -4.14667 -41.38210 34955 ft 517 kts 28°
2026-05-05 07:03 -4.08462 -41.34629 34960 ft 517 kts 28°
2026-05-05 07:03 -4.02216 -41.31024 34961 ft 518 kts 28°
2026-05-05 07:04 -3.95971 -41.27422 34957 ft 515 kts 29°
2026-05-05 07:04 -3.89769 -41.23843 34963 ft 513 kts 29°
2026-05-05 07:05 -3.83620 -41.20297 34962 ft 513 kts 29°
2026-05-05 07:05 -3.77425 -41.16725 34960 ft 513 kts 29°
2026-05-05 07:06 -3.71223 -41.13150 34964 ft 513 kts 29°
2026-05-05 07:06 -3.65075 -41.09608 34961 ft 512 kts 29°
2026-05-05 07:07 -3.58885 -41.06051 34955 ft 512 kts 29°
2026-05-05 07:07 -3.52690 -41.02491 34949 ft 512 kts 29°
2026-05-05 07:08 -3.46543 -40.98957 34952 ft 512 kts 29°
2026-05-05 07:08 -3.40351 -40.95398 34941 ft 511 kts 29°
2026-05-05 07:09 -3.34217 -40.91872 34939 ft 511 kts 29°
2026-05-05 07:09 -3.28049 -40.88327 34938 ft 510 kts 29°
2026-05-05 07:10 -3.21886 -40.84779 34936 ft 510 kts 29°
2026-05-05 07:10 -3.15772 -40.81253 34939 ft 510 kts 29°
2026-05-05 07:11 -3.09606 -40.77704 34937 ft 510 kts 29°
2026-05-05 07:11 -3.03450 -40.74163 34936 ft 510 kts 29°
2026-05-05 07:12 -2.97290 -40.70618 34935 ft 510 kts 29°
2026-05-05 07:12 -2.91170 -40.67097 34936 ft 510 kts 29°
2026-05-05 07:13 -2.85015 -40.63559 34932 ft 509 kts 29°
2026-05-05 07:13 -2.78872 -40.60027 34933 ft 508 kts 29°
2026-05-05 07:14 -2.72774 -40.56522 34933 ft 508 kts 29°
2026-05-05 07:14 -2.66626 -40.52988 34933 ft 508 kts 29°
2026-05-05 07:15 -2.60484 -40.49458 34935 ft 508 kts 28°
2026-05-05 07:15 -2.54319 -40.45917 34935 ft 511 kts 29°
2026-05-05 07:16 -2.48180 -40.42392 34934 ft 511 kts 28°
2026-05-05 07:16 -2.42000 -40.38840 34932 ft 511 kts 29°
2026-05-05 07:17 -2.35816 -40.35285 34935 ft 512 kts 29°
2026-05-05 07:17 -2.29678 -40.31760 34936 ft 511 kts 30°
2026-05-05 07:18 -2.23517 -40.28222 34936 ft 509 kts 30°
2026-05-05 07:18 -2.17365 -40.24690 34937 ft 509 kts 30°
2026-05-05 07:19 -2.11216 -40.21159 34935 ft 509 kts 30°
2026-05-05 07:19 -2.05112 -40.17654 34936 ft 508 kts 30°
2026-05-05 07:20 -1.98965 -40.14125 34935 ft 509 kts 30°
2026-05-05 07:20 -1.93855 -40.11191 34936 ft 509 kts 30°
2026-05-05 07:21 -1.86705 -40.07087 34937 ft 509 kts 30°
2026-05-05 07:21 -1.81594 -40.04153 34936 ft 509 kts 30°
2026-05-05 07:22 -1.75450 -40.00627 34934 ft 508 kts 30°
2026-05-05 07:22 -1.69291 -39.97092 34935 ft 510 kts 30°
2026-05-05 07:23 -1.63170 -39.93580 34937 ft 510 kts 30°
2026-05-05 07:23 -1.56997 -39.90038 34935 ft 510 kts 30°
2026-05-05 07:24 -1.50835 -39.86502 34936 ft 510 kts 30°
2026-05-05 07:24 -1.44708 -39.82985 34934 ft 510 kts 28°
2026-05-05 07:25 -1.38531 -39.79440 34937 ft 512 kts 28°
2026-05-05 07:25 -1.32328 -39.75884 34936 ft 514 kts 28°
2026-05-05 07:26 -1.26120 -39.72324 34934 ft 514 kts 28°
2026-05-05 07:26 -1.19961 -39.68795 34937 ft 514 kts 28°
2026-05-05 07:27 -1.13752 -39.65234 34935 ft 515 kts 28°
2026-05-05 07:27 -1.07524 -39.61659 34935 ft 515 kts 28°
2026-05-05 07:28 -1.01291 -39.58084 34937 ft 515 kts 28°
2026-05-05 07:28 -0.95095 -39.54530 34935 ft 517 kts 28°
2026-05-05 07:29 -0.88838 -39.50942 34939 ft 518 kts 28°
2026-05-05 07:29 -0.82588 -39.47359 34939 ft 517 kts 29°
2026-05-05 07:30 -0.76352 -39.43784 34941 ft 516 kts 29°
2026-05-05 07:30 -0.67033 -39.38441 34947 ft 517 kts 29°
2026-05-05 07:31 -0.60793 -39.34864 34946 ft 516 kts 29°
2026-05-05 07:31 -0.54557 -39.31287 34945 ft 514 kts 30°
2026-05-05 07:32 -0.48405 -39.27759 34946 ft 511 kts 30°
2026-05-05 07:32 -0.42226 -39.24216 34949 ft 511 kts 30°
2026-05-05 07:33 -0.36042 -39.20670 34945 ft 511 kts 30°
2026-05-05 07:33 -0.29897 -39.17147 34952 ft 512 kts 30°
2026-05-05 07:34 -0.23713 -39.13602 34953 ft 512 kts 30°
2026-05-05 07:34 -0.17523 -39.10053 34957 ft 513 kts 30°
2026-05-05 07:35 -0.11361 -39.06521 34958 ft 514 kts 30°
2026-05-05 07:35 -0.05153 -39.02962 34958 ft 514 kts 30°
2026-05-05 07:36 0.01062 -38.99402 34956 ft 513 kts 30°
2026-05-05 07:36 0.07319 -38.96082 34958 ft 511 kts 27°
2026-05-05 07:37 0.13667 -38.92870 34957 ft 511 kts 27°
2026-05-05 07:37 0.19994 -38.89640 34957 ft 510 kts 27°
2026-05-05 07:38 0.26307 -38.86381 34958 ft 510 kts 28°
2026-05-05 07:38 0.32580 -38.83130 34958 ft 512 kts 29°
2026-05-05 07:39 0.38933 -38.79833 34961 ft 515 kts 29°
2026-05-05 07:39 0.45260 -38.76553 34961 ft 515 kts 29°
2026-05-05 07:40 0.51634 -38.73250 34960 ft 515 kts 29°
2026-05-05 07:40 0.58000 -38.69951 34960 ft 515 kts 29°
2026-05-05 07:41 0.64345 -38.66662 34965 ft 519 kts 28°
2026-05-05 07:41 0.70791 -38.63320 34963 ft 522 kts 28°
2026-05-05 07:42 0.77254 -38.59971 34960 ft 522 kts 28°
2026-05-05 07:42 0.83679 -38.56641 34958 ft 523 kts 28°
2026-05-05 07:43 0.90145 -38.53290 34957 ft 522 kts 28°
2026-05-05 07:43 0.96555 -38.49967 34955 ft 521 kts 28°
2026-05-05 07:44 1.02996 -38.46628 34958 ft 520 kts 28°
2026-05-05 07:44 1.09430 -38.43293 34958 ft 520 kts 28°
2026-05-05 07:45 1.15825 -38.39977 34957 ft 520 kts 28°
2026-05-05 07:45 1.22255 -38.36644 34956 ft 520 kts 28°
2026-05-05 07:46 1.28699 -38.33302 34955 ft 521 kts 28°
2026-05-05 07:46 1.35105 -38.29981 34955 ft 521 kts 28°
2026-05-05 07:47 1.41555 -38.26636 34955 ft 521 kts 28°
2026-05-05 07:47 1.47960 -38.23315 34955 ft 521 kts 28°
2026-05-05 07:48 1.54416 -38.19967 34955 ft 522 kts 28°
2026-05-05 07:48 1.60877 -38.16615 34955 ft 522 kts 28°
2026-05-05 07:49 1.67292 -38.13288 34958 ft 522 kts 28°
2026-05-05 07:49 1.73752 -38.09937 34955 ft 522 kts 28°
2026-05-05 07:50 1.80205 -38.06589 34952 ft 522 kts 28°
2026-05-05 07:50 1.86677 -38.03232 34954 ft 524 kts 28°
2026-05-05 07:51 1.93119 -37.99889 34958 ft 524 kts 28°
2026-05-05 07:51 1.99603 -37.96525 34958 ft 524 kts 28°
2026-05-05 07:52 2.06085 -37.93161 34954 ft 524 kts 28°
2026-05-05 07:52 2.12573 -37.89794 34951 ft 524 kts 28°
2026-05-05 07:53 2.19034 -37.86440 34959 ft 526 kts 28°
2026-05-05 07:53 2.25547 -37.83059 34955 ft 527 kts 28°
2026-05-05 07:54 2.32059 -37.79678 34959 ft 527 kts 28°
2026-05-05 07:54 2.38572 -37.76297 34958 ft 527 kts 28°
2026-05-05 07:55 2.45044 -37.72937 34954 ft 528 kts 28°
2026-05-05 07:55 2.51577 -37.69544 34954 ft 528 kts 28°
2026-05-05 07:56 2.58102 -37.66155 34958 ft 527 kts 28°
2026-05-05 07:56 2.64625 -37.62767 34957 ft 527 kts 28°
2026-05-05 07:57 2.71104 -37.59401 34961 ft 527 kts 28°
2026-05-05 07:57 2.77619 -37.56016 34958 ft 527 kts 28°
2026-05-05 07:58 2.84103 -37.52647 34958 ft 527 kts 28°
2026-05-05 07:58 2.90625 -37.49258 34959 ft 527 kts 28°
2026-05-05 07:59 2.97138 -37.45874 34963 ft 527 kts 28°
2026-05-05 07:59 3.03641 -37.42494 34959 ft 526 kts 28°
2026-05-05 08:00 3.10108 -37.39133 34960 ft 527 kts 28°
2026-05-05 08:00 3.16634 -37.35741 34963 ft 527 kts 28°
2026-05-05 08:01 3.23152 -37.32353 34961 ft 527 kts 28°
2026-05-05 08:01 3.29626 -37.28987 34965 ft 527 kts 28°
2026-05-05 08:02 3.36147 -37.25596 34961 ft 527 kts 28°
2026-05-05 08:02 3.42677 -37.22200 34967 ft 528 kts 28°
2026-05-05 08:03 3.49158 -37.18830 34966 ft 527 kts 28°
2026-05-05 08:03 3.55673 -37.15441 34966 ft 527 kts 28°
2026-05-05 08:04 3.62195 -37.12047 34963 ft 527 kts 28°
2026-05-05 08:04 3.68713 -37.08654 34963 ft 528 kts 28°
2026-05-05 08:05 3.75248 -37.05253 34963 ft 529 kts 28°
2026-05-05 08:05 3.81752 -37.01867 34966 ft 530 kts 28°
2026-05-05 08:06 3.88300 -36.98459 34967 ft 529 kts 28°
2026-05-05 08:06 3.94835 -36.95056 34966 ft 528 kts 28°
2026-05-05 08:07 4.01326 -36.91674 34969 ft 529 kts 27°
2026-05-05 08:07 4.07868 -36.88266 34968 ft 529 kts 27°
2026-05-05 08:08 4.14413 -36.84857 34968 ft 529 kts 27°
2026-05-05 08:08 4.20918 -36.81467 34969 ft 529 kts 27°
2026-05-05 08:09 4.27467 -36.78053 34965 ft 529 kts 27°
2026-05-05 08:09 4.33975 -36.74660 34966 ft 531 kts 27°
2026-05-05 08:10 4.40541 -36.71236 34969 ft 530 kts 27°
2026-05-05 08:10 4.47091 -36.67820 34969 ft 530 kts 27°
2026-05-05 08:11 4.52534 -36.64981 34970 ft 530 kts 27°
2026-05-05 08:11 4.60157 -36.61004 34971 ft 530 kts 27°
2026-05-05 08:12 4.65605 -36.58161 34974 ft 531 kts 27°
2026-05-05 08:12 4.72172 -36.54733 34974 ft 531 kts 27°
2026-05-05 08:13 4.78739 -36.51304 34974 ft 531 kts 27°
2026-05-05 08:13 4.85294 -36.47882 34975 ft 531 kts 27°
2026-05-05 08:14 4.91812 -36.44477 34971 ft 531 kts 27°
2026-05-05 08:14 4.98372 -36.41050 34972 ft 531 kts 27°
2026-05-05 08:15 5.04939 -36.37619 34979 ft 531 kts 27°
2026-05-05 08:15 5.11457 -36.34212 34979 ft 531 kts 27°
2026-05-05 08:16 5.18021 -36.30780 34977 ft 531 kts 27°
2026-05-05 08:16 5.24586 -36.27347 34976 ft 531 kts 27°
2026-05-05 08:17 5.31108 -36.23936 34976 ft 531 kts 27°
2026-05-05 08:17 5.37669 -36.20504 34977 ft 531 kts 27°
2026-05-05 08:18 5.44234 -36.17068 34980 ft 531 kts 27°
2026-05-05 08:18 5.50757 -36.13655 34979 ft 531 kts 27°
2026-05-05 08:19 5.57318 -36.10219 34979 ft 530 kts 27°
2026-05-05 08:19 5.63856 -36.06795 34979 ft 529 kts 27°
2026-05-05 08:20 5.70345 -36.03396 34980 ft 529 kts 27°
2026-05-05 08:20 5.76885 -35.99970 34979 ft 529 kts 27°
2026-05-05 08:21 5.83431 -35.96539 34983 ft 530 kts 27°
2026-05-05 08:21 5.89943 -35.93121 34982 ft 531 kts 27°
2026-05-05 08:22 5.96492 -35.89682 34982 ft 530 kts 27°
2026-05-05 08:22 6.03043 -35.86243 34982 ft 530 kts 27°
2026-05-05 08:23 6.09592 -35.82804 34985 ft 531 kts 27°
2026-05-05 08:23 6.16143 -35.79363 34988 ft 531 kts 27°
2026-05-05 08:24 6.22649 -35.75944 34985 ft 530 kts 27°
2026-05-05 08:24 6.29204 -35.72499 34986 ft 531 kts 27°
2026-05-05 08:25 6.35764 -35.69050 34985 ft 531 kts 27°
2026-05-05 08:25 6.42282 -35.65623 34985 ft 531 kts 27°
2026-05-05 08:26 6.48841 -35.62172 34987 ft 531 kts 27°
2026-05-05 08:26 6.55366 -35.58739 34988 ft 532 kts 27°
2026-05-05 08:27 6.61930 -35.55284 34985 ft 532 kts 27°
2026-05-05 08:27 6.68497 -35.51827 34985 ft 532 kts 27°
2026-05-05 08:28 6.75021 -35.48391 34984 ft 532 kts 27°
2026-05-05 08:28 6.81590 -35.44930 34988 ft 532 kts 27°
2026-05-05 08:29 6.88162 -35.41467 34985 ft 532 kts 27°
2026-05-05 08:30 6.98019 -35.36271 34986 ft 532 kts 27°
2026-05-05 08:30 7.04550 -35.32827 34988 ft 532 kts 27°
2026-05-05 08:31 7.11123 -35.29359 34988 ft 532 kts 27°
2026-05-05 08:31 7.17651 -35.25914 34987 ft 532 kts 27°
2026-05-05 08:32 7.24213 -35.22449 34989 ft 532 kts 26°
2026-05-05 08:32 7.30784 -35.18979 34988 ft 532 kts 26°
2026-05-05 08:33 7.37352 -35.15510 34986 ft 532 kts 26°
2026-05-05 08:33 7.43879 -35.12060 34988 ft 532 kts 26°
2026-05-05 08:34 7.50449 -35.08587 34988 ft 532 kts 26°
2026-05-05 08:34 7.57012 -35.05117 34987 ft 532 kts 26°
2026-05-05 08:35 7.63530 -35.01669 34988 ft 532 kts 26°
2026-05-05 08:35 7.70279 -34.98624 34987 ft 530 kts 20°
2026-05-05 08:36 7.77181 -34.95916 34990 ft 532 kts 19°
2026-05-05 08:36 7.84080 -34.93272 34992 ft 534 kts 19°
2026-05-05 08:37 7.91043 -34.90599 34994 ft 534 kts 19°
2026-05-05 08:37 7.97999 -34.87918 34991 ft 534 kts 19°
2026-05-05 08:38 8.04904 -34.85250 34990 ft 534 kts 19°
2026-05-05 08:38 8.11862 -34.82560 34992 ft 535 kts 19°
2026-05-05 08:39 8.18847 -34.79860 34991 ft 537 kts 19°
2026-05-05 08:39 8.25843 -34.77155 34990 ft 538 kts 19°
2026-05-05 08:40 8.32787 -34.74468 34986 ft 538 kts 19°
2026-05-05 08:40 8.39781 -34.71761 34991 ft 537 kts 19°
2026-05-05 08:41 8.46773 -34.69053 34991 ft 538 kts 19°
2026-05-05 08:41 8.53726 -34.66360 34992 ft 538 kts 19°
2026-05-05 08:42 8.60723 -34.63649 34996 ft 538 kts 19°
2026-05-05 08:42 8.67717 -34.60938 34991 ft 538 kts 19°
2026-05-05 08:43 8.74727 -34.58220 34994 ft 538 kts 19°
2026-05-05 08:43 8.81683 -34.55521 34994 ft 538 kts 19°
2026-05-05 08:44 8.88681 -34.52805 34995 ft 538 kts 19°
2026-05-05 08:44 8.95687 -34.50085 34993 ft 538 kts 19°
2026-05-05 08:45 9.02636 -34.47386 34992 ft 538 kts 19°
2026-05-05 08:45 9.09645 -34.44662 34995 ft 538 kts 19°
2026-05-05 08:46 9.16642 -34.41942 34995 ft 538 kts 19°
2026-05-05 08:46 9.23598 -34.39237 34994 ft 538 kts 19°
2026-05-05 08:47 9.30606 -34.36511 34992 ft 538 kts 19°
2026-05-05 08:47 9.37609 -34.33784 35004 ft 538 kts 19°
2026-05-05 08:48 9.44559 -34.31078 34991 ft 538 kts 19°
2026-05-05 08:48 9.51558 -34.28351 34998 ft 538 kts 19°
2026-05-05 08:49 9.58553 -34.25625 34998 ft 538 kts 19°
2026-05-05 08:49 9.65540 -34.22901 34994 ft 538 kts 19°
2026-05-05 08:50 9.72487 -34.20190 35001 ft 538 kts 19°
2026-05-05 08:50 9.79480 -34.17461 34998 ft 538 kts 19°
2026-05-05 08:51 9.86474 -34.14731 35000 ft 538 kts 19°
2026-05-05 08:51 9.93418 -34.12018 35001 ft 538 kts 19°
2026-05-05 08:52 10.00419 -34.09282 35002 ft 538 kts 19°
2026-05-05 08:52 10.07415 -34.06547 35005 ft 538 kts 19°
2026-05-05 08:53 10.14420 -34.03807 35005 ft 538 kts 19°
2026-05-05 08:53 10.21380 -34.01083 34988 ft 539 kts 19°
2026-05-05 08:54 10.28383 -33.98341 34994 ft 539 kts 19°
2026-05-05 08:54 10.35385 -33.95598 34998 ft 539 kts 18°
2026-05-05 08:55 10.42350 -33.92868 35016 ft 539 kts 18°
2026-05-05 08:55 10.49359 -33.90120 35000 ft 539 kts 18°
2026-05-05 08:56 10.56377 -33.87367 35014 ft 539 kts 18°
2026-05-05 08:56 10.63389 -33.84615 35001 ft 539 kts 18°
2026-05-05 08:57 10.70358 -33.81878 35006 ft 540 kts 18°
2026-05-05 08:57 10.77389 -33.79116 35009 ft 541 kts 18°
2026-05-05 08:58 10.84431 -33.76348 35006 ft 541 kts 18°
2026-05-05 08:58 10.91417 -33.73601 35005 ft 541 kts 18°
2026-05-05 08:59 10.98453 -33.70832 35009 ft 541 kts 18°
2026-05-05 08:59 11.05493 -33.68061 35006 ft 542 kts 18°
2026-05-05 09:00 11.12487 -33.65306 35013 ft 542 kts 18°
2026-05-05 09:00 11.19527 -33.62532 35014 ft 542 kts 18°
2026-05-05 09:01 11.26567 -33.59756 35017 ft 542 kts 18°
2026-05-05 09:01 11.32423 -33.57446 35020 ft 542 kts 18°
2026-05-05 09:02 11.39485 -33.54659 35016 ft 544 kts 18°
2026-05-05 09:02 11.46502 -33.51888 35018 ft 544 kts 18°
2026-05-05 09:03 11.53573 -33.49094 35014 ft 544 kts 18°
2026-05-05 09:03 11.60642 -33.46300 35017 ft 544 kts 18°
2026-05-05 09:04 11.67668 -33.43520 35021 ft 544 kts 18°
2026-05-05 09:04 11.74742 -33.40722 35017 ft 545 kts 18°
2026-05-05 09:05 11.81816 -33.37921 35019 ft 545 kts 18°
2026-05-05 09:05 11.88848 -33.35135 35022 ft 545 kts 18°
2026-05-05 09:06 11.95922 -33.32330 35028 ft 545 kts 17°
2026-05-05 09:06 12.02961 -33.29538 35022 ft 545 kts 17°
2026-05-05 09:07 12.10051 -33.26725 35023 ft 545 kts 17°
2026-05-05 09:07 12.17135 -33.23912 35022 ft 545 kts 17°
2026-05-05 09:08 12.24165 -33.21119 35023 ft 545 kts 17°
2026-05-05 09:08 12.31257 -33.18300 35024 ft 545 kts 17°
2026-05-05 09:09 12.38346 -33.15480 35024 ft 545 kts 17°
2026-05-05 09:09 12.45380 -33.12681 35023 ft 545 kts 17°
2026-05-05 09:10 12.52468 -33.09859 35022 ft 545 kts 17°
2026-05-05 09:10 12.59551 -33.07036 35034 ft 545 kts 17°
2026-05-05 09:11 12.66593 -33.04228 35026 ft 546 kts 17°
2026-05-05 09:11 12.73684 -33.01399 35026 ft 546 kts 17°
2026-05-05 09:12 12.80728 -32.98588 35023 ft 546 kts 17°
2026-05-05 09:12 12.87817 -32.95757 35029 ft 546 kts 17°
2026-05-05 09:13 12.94904 -32.92924 35031 ft 546 kts 17°
2026-05-05 09:13 13.01956 -32.90105 35033 ft 547 kts 17°
2026-05-05 09:14 13.09057 -32.87263 35031 ft 547 kts 17°
2026-05-05 09:14 13.16148 -32.84424 35035 ft 547 kts 17°
2026-05-05 09:15 13.23204 -32.81597 35035 ft 547 kts 17°
2026-05-05 09:15 13.30311 -32.78749 35041 ft 549 kts 17°
2026-05-05 09:16 13.37400 -32.75906 35037 ft 550 kts 17°
2026-05-05 09:16 13.44528 -32.73044 35032 ft 550 kts 17°
2026-05-05 09:17 13.51663 -32.70178 35033 ft 550 kts 17°
2026-05-05 09:17 13.58792 -32.67312 35047 ft 550 kts 16°
2026-05-05 09:18 13.65953 -32.64434 35039 ft 553 kts 16°
2026-05-05 09:18 13.73087 -32.61563 35042 ft 554 kts 17°
2026-05-05 09:19 13.80275 -32.58668 35039 ft 553 kts 17°
2026-05-05 09:19 13.87453 -32.55775 35039 ft 553 kts 17°
2026-05-05 09:20 13.94581 -32.52901 35041 ft 553 kts 16°
2026-05-05 09:20 14.01751 -32.50007 35041 ft 552 kts 16°
2026-05-05 09:21 14.08919 -32.47113 35039 ft 552 kts 16°
2026-05-05 09:21 14.16082 -32.44219 35040 ft 553 kts 16°
2026-05-05 09:22 14.23204 -32.41339 35045 ft 553 kts 16°
2026-05-05 09:22 14.30394 -32.38432 35045 ft 555 kts 16°
2026-05-05 09:23 14.37598 -32.35515 35045 ft 555 kts 16°
2026-05-05 09:23 14.44754 -32.32614 35044 ft 555 kts 16°
2026-05-05 09:24 14.51940 -32.29700 35048 ft 554 kts 16°
2026-05-05 09:24 14.59146 -32.26778 35049 ft 558 kts 16°
2026-05-05 09:25 14.66395 -32.23837 35048 ft 559 kts 16°
2026-05-05 09:25 14.73605 -32.20906 35048 ft 560 kts 16°
2026-05-05 09:26 14.80862 -32.17954 35050 ft 560 kts 16°
2026-05-05 09:26 14.88115 -32.15002 35057 ft 559 kts 15°
2026-05-05 09:27 14.95361 -32.12051 35051 ft 559 kts 15°
2026-05-05 09:27 15.02560 -32.09118 35055 ft 559 kts 15°
2026-05-05 09:28 15.09801 -32.06166 35051 ft 558 kts 15°
2026-05-05 09:28 15.17044 -32.03211 35053 ft 558 kts 15°
2026-05-05 09:29 15.24228 -32.00275 35052 ft 556 kts 15°
2026-05-05 09:29 15.31423 -31.97335 35056 ft 555 kts 15°
2026-05-05 09:30 15.38627 -31.94390 35057 ft 555 kts 15°
2026-05-05 09:30 15.45782 -31.91462 35059 ft 555 kts 15°
2026-05-05 09:31 15.52991 -31.88510 35061 ft 555 kts 15°
2026-05-05 09:31 15.60138 -31.85580 35061 ft 555 kts 15°
2026-05-05 09:32 15.67331 -31.82630 35060 ft 555 kts 15°
2026-05-05 09:32 15.74526 -31.79693 35190 ft 553 kts 14°
2026-05-05 09:32 15.78144 -31.78389 35558 ft 548 kts 11°
2026-05-05 09:33 15.81770 -31.77192 35934 ft 544 kts 10°
2026-05-05 09:33 15.85376 -31.76039 36403 ft 539 kts
2026-05-05 09:33 15.88958 -31.74892 36734 ft 537 kts
2026-05-05 09:33 15.92487 -31.73749 36965 ft 538 kts 10°
2026-05-05 09:34 15.96069 -31.72574 37057 ft 542 kts 10°
2026-05-05 09:34 16.03289 -31.70165 37064 ft 545 kts 11°
2026-05-05 09:35 16.10515 -31.67725 37066 ft 545 kts 11°
2026-05-05 09:35 16.21280 -31.64084 37065 ft 541 kts 11°
2026-05-05 09:36 16.28448 -31.61662 37069 ft 540 kts 11°
2026-05-05 09:36 16.35615 -31.59242 37070 ft 540 kts 11°
2026-05-05 09:37 16.42724 -31.56839 37069 ft 540 kts 11°
2026-05-05 09:37 16.49884 -31.54416 37073 ft 539 kts 11°
2026-05-05 09:38 16.57011 -31.52000 37069 ft 537 kts 11°
2026-05-05 09:38 16.64134 -31.49586 37070 ft 538 kts 11°
2026-05-05 09:39 16.71213 -31.47186 37072 ft 538 kts 11°
2026-05-05 09:39 16.78339 -31.44767 37076 ft 538 kts 11°
2026-05-05 09:40 16.85450 -31.42349 37072 ft 535 kts 11°
2026-05-05 09:40 16.92490 -31.39955 37069 ft 535 kts 11°
2026-05-05 09:41 16.99573 -31.37546 37076 ft 535 kts 11°
2026-05-05 09:41 17.06663 -31.35132 37073 ft 535 kts 11°
2026-05-05 09:42 17.13744 -31.32718 37080 ft 533 kts 11°
2026-05-05 09:42 17.20746 -31.30327 37078 ft 531 kts 11°
2026-05-05 09:43 17.27785 -31.27925 37075 ft 531 kts 11°
2026-05-05 09:43 17.34818 -31.25524 37075 ft 531 kts 11°
2026-05-05 09:44 17.41853 -31.23119 37090 ft 531 kts 11°
2026-05-05 09:44 17.48837 -31.20727 37077 ft 530 kts 11°
2026-05-05 09:45 17.55858 -31.18322 37073 ft 530 kts 11°
2026-05-05 09:45 17.62872 -31.15918 37073 ft 530 kts 11°
2026-05-05 09:46 17.69839 -31.13529 37075 ft 530 kts 11°
2026-05-05 09:46 17.76849 -31.11122 37073 ft 529 kts 11°
2026-05-05 09:47 17.83848 -31.08716 37074 ft 528 kts 11°
2026-05-05 09:47 17.90797 -31.06327 37076 ft 528 kts 11°
2026-05-05 09:48 17.97795 -31.03918 37074 ft 528 kts 11°
2026-05-05 09:48 18.04792 -31.01508 37097 ft 528 kts 11°
2026-05-05 09:49 18.11727 -30.99116 37075 ft 526 kts 11°
2026-05-05 09:49 18.18678 -30.96716 37075 ft 525 kts 11°
2026-05-05 09:50 18.25638 -30.94314 37070 ft 526 kts 11°
2026-05-05 09:50 18.32613 -30.91904 37085 ft 526 kts 11°
2026-05-05 09:51 18.39535 -30.89510 37076 ft 525 kts 12°
2026-05-05 09:51 18.46463 -30.87108 37075 ft 523 kts 12°
2026-05-05 09:52 18.52218 -30.85114 37077 ft 523 kts 12°
2026-05-05 09:52 18.59140 -30.82715 37075 ft 523 kts 12°
2026-05-05 09:53 18.66063 -30.80313 37077 ft 523 kts 12°
2026-05-05 09:53 18.72937 -30.77925 37078 ft 523 kts 12°
2026-05-05 09:54 18.79855 -30.75520 37075 ft 523 kts 12°
2026-05-05 09:54 18.86773 -30.73113 37072 ft 523 kts 12°
2026-05-05 09:55 18.93693 -30.70703 37075 ft 523 kts 12°
2026-05-05 09:55 19.00567 -30.68308 37084 ft 522 kts 12°
2026-05-05 09:56 19.07455 -30.65903 37081 ft 520 kts 12°
2026-05-05 09:56 19.14343 -30.63498 37074 ft 520 kts 12°
2026-05-05 09:57 19.21183 -30.61108 37066 ft 520 kts 12°
2026-05-05 09:57 19.28073 -30.58698 37074 ft 520 kts 12°
2026-05-05 09:58 19.34951 -30.56291 37074 ft 518 kts 13°
2026-05-05 09:58 19.41756 -30.53905 37075 ft 517 kts 13°
2026-05-05 09:59 19.48604 -30.51504 37078 ft 517 kts 13°
2026-05-05 09:59 19.55447 -30.49102 37075 ft 517 kts 13°
2026-05-05 10:00 19.62249 -30.46713 37096 ft 517 kts 13°
2026-05-05 10:00 19.69067 -30.44314 37080 ft 514 kts 13°
2026-05-05 10:01 19.75859 -30.41923 37080 ft 513 kts 13°
2026-05-05 10:01 19.82648 -30.39532 37081 ft 513 kts 13°
2026-05-05 10:02 19.89406 -30.37150 37084 ft 514 kts 13°
2026-05-05 10:02 19.96203 -30.34752 37084 ft 513 kts 13°
2026-05-05 10:03 20.02989 -30.32354 37080 ft 512 kts 13°
2026-05-05 10:03 20.09721 -30.29974 37080 ft 512 kts 13°
2026-05-05 10:04 20.16498 -30.27576 37083 ft 512 kts 13°
2026-05-05 10:04 20.23278 -30.25175 37106 ft 512 kts 13°
2026-05-05 10:05 20.30034 -30.22779 37082 ft 510 kts 14°
2026-05-05 10:05 20.36725 -30.20402 37086 ft 509 kts 14°
2026-05-05 10:06 20.43463 -30.18008 37086 ft 509 kts 14°
2026-05-05 10:06 20.50195 -30.15616 37086 ft 509 kts 14°
2026-05-05 10:07 20.56886 -30.13235 37089 ft 509 kts 14°
2026-05-05 10:07 20.63603 -30.10842 37091 ft 508 kts 14°
2026-05-05 10:08 20.70316 -30.08448 37086 ft 508 kts 14°
2026-05-05 10:08 20.76984 -30.06070 37086 ft 508 kts 14°
2026-05-05 10:09 20.83693 -30.03674 37086 ft 508 kts 14°
2026-05-05 10:09 20.90396 -30.01277 37090 ft 507 kts 14°
2026-05-05 10:10 20.97040 -29.98899 37091 ft 506 kts 14°
2026-05-05 10:10 21.03729 -29.96504 37092 ft 506 kts 14°
2026-05-05 10:11 21.10407 -29.94110 37089 ft 506 kts 14°
2026-05-05 10:11 21.17097 -29.91709 37087 ft 506 kts 14°
2026-05-05 10:12 21.23721 -29.89328 37088 ft 504 kts 14°
2026-05-05 10:12 21.30380 -29.86934 37086 ft 503 kts 14°
2026-05-05 10:13 21.37029 -29.84542 37094 ft 503 kts 14°
2026-05-05 10:13 21.43634 -29.82162 37090 ft 504 kts 14°
2026-05-05 10:14 21.50258 -29.79608 37100 ft 506 kts 20°
2026-05-05 10:14 21.56681 -29.76508 37091 ft 505 kts 21°
2026-05-05 10:15 21.63021 -29.73333 37087 ft 505 kts 21°
2026-05-05 10:15 21.69394 -29.70124 37090 ft 505 kts 21°
2026-05-05 10:16 21.75769 -29.66922 37088 ft 505 kts 21°
2026-05-05 10:16 21.82147 -29.63722 37092 ft 505 kts 21°
2026-05-05 10:17 21.88489 -29.60539 37089 ft 505 kts 21°
2026-05-05 10:17 21.94866 -29.57335 37088 ft 505 kts 21°
2026-05-05 10:18 22.01240 -29.54129 37092 ft 505 kts 21°
2026-05-05 10:18 22.07621 -29.50916 37092 ft 507 kts 21°
2026-05-05 10:19 22.13978 -29.47712 37095 ft 507 kts 21°
2026-05-05 10:19 22.20373 -29.44485 37090 ft 507 kts 21°
2026-05-05 10:20 22.26775 -29.41251 37091 ft 507 kts 21°
2026-05-05 10:20 22.33138 -29.38034 37093 ft 507 kts 21°
2026-05-05 10:21 22.39529 -29.34800 37091 ft 507 kts 21°
2026-05-05 10:21 22.45924 -29.31560 37085 ft 506 kts 21°
2026-05-05 10:22 22.52310 -29.28321 37087 ft 506 kts 21°
2026-05-05 10:22 22.58645 -29.25106 37085 ft 506 kts 21°
2026-05-05 10:23 22.65034 -29.21860 37089 ft 508 kts 20°
2026-05-05 10:23 22.71442 -29.18601 37088 ft 508 kts 20°
2026-05-05 10:24 22.77851 -29.15337 37093 ft 508 kts 20°
2026-05-05 10:24 22.84211 -29.12094 37092 ft 508 kts 20°
2026-05-05 10:25 22.90607 -29.08831 37093 ft 508 kts 20°
2026-05-05 10:25 22.97008 -29.05561 37092 ft 508 kts 20°
2026-05-05 10:26 23.03411 -29.02287 37092 ft 508 kts 20°
2026-05-05 10:26 23.09764 -28.99035 37085 ft 507 kts 20°
2026-05-05 10:27 23.16143 -28.95766 37092 ft 506 kts 20°
2026-05-05 10:27 23.22528 -28.92491 37091 ft 508 kts 20°
2026-05-05 10:28 23.28893 -28.89224 37089 ft 508 kts 20°
2026-05-05 10:28 23.35293 -28.85934 37089 ft 508 kts 20°
2026-05-05 10:29 23.41689 -28.82641 37088 ft 507 kts 20°
2026-05-05 10:29 23.48063 -28.79357 37089 ft 506 kts 20°
2026-05-05 10:30 23.54393 -28.76093 37088 ft 506 kts 20°
2026-05-05 10:30 23.60768 -28.72803 37088 ft 506 kts 20°
2026-05-05 10:31 23.67139 -28.69510 37089 ft 506 kts 20°
2026-05-05 10:31 23.73441 -28.66247 37114 ft 500 kts 20°
2026-05-05 10:32 23.79718 -28.62993 37102 ft 498 kts 20°
2026-05-05 10:32 23.86000 -28.59739 37083 ft 499 kts 20°
2026-05-05 10:33 23.92281 -28.56481 37080 ft 499 kts 20°
2026-05-05 10:33 23.98516 -28.53241 37097 ft 499 kts 20°
2026-05-05 10:34 24.04780 -28.49982 37087 ft 497 kts 19°
2026-05-05 10:34 24.11030 -28.46726 37086 ft 496 kts 19°
2026-05-05 10:35 24.17231 -28.43494 37086 ft 496 kts 19°
2026-05-05 10:35 24.23476 -28.40236 37086 ft 496 kts 19°
2026-05-05 10:36 24.29713 -28.36978 37087 ft 496 kts 19°
2026-05-05 10:36 24.35907 -28.33737 37086 ft 495 kts 19°
2026-05-05 10:37 24.42120 -28.30484 37089 ft 494 kts 19°
2026-05-05 10:37 24.48333 -28.27228 37089 ft 494 kts 19°
2026-05-05 10:38 24.54503 -28.23992 37086 ft 494 kts 19°
2026-05-05 10:38 24.60710 -28.20731 37086 ft 494 kts 19°
2026-05-05 10:39 24.66903 -28.17473 37086 ft 491 kts 19°
2026-05-05 10:39 24.73028 -28.14246 37086 ft 490 kts 19°
2026-05-05 10:40 24.79181 -28.11005 37092 ft 490 kts 19°
2026-05-05 10:40 24.84305 -28.08303 37091 ft 490 kts 19°
2026-05-05 10:41 24.90486 -28.05042 37085 ft 495 kts 19°
2026-05-05 10:41 24.96725 -28.01746 37085 ft 497 kts 19°
2026-05-05 10:42 25.06269 -27.97590 37087 ft 491 kts 12°
2026-05-05 10:43 25.12730 -27.95113 37081 ft 490 kts 12°
2026-05-05 10:43 25.19196 -27.92657 37084 ft 490 kts 12°
2026-05-05 10:44 25.25617 -27.90207 37092 ft 491 kts 12°
2026-05-05 10:44 25.32137 -27.87713 37086 ft 497 kts 12°
2026-05-05 10:45 25.38680 -27.85200 37083 ft 498 kts 12°
2026-05-05 10:45 25.45224 -27.82681 37083 ft 498 kts 12°
2026-05-05 10:46 25.51733 -27.80174 37083 ft 498 kts 12°
2026-05-05 10:46 25.58287 -27.77649 37084 ft 498 kts 12°
2026-05-05 10:47 25.64876 -27.75109 37089 ft 502 kts 12°
2026-05-05 10:47 25.71455 -27.72569 37084 ft 504 kts 12°
2026-05-05 10:48 25.78084 -27.70004 37083 ft 504 kts 12°
2026-05-05 10:48 25.84707 -27.67439 37096 ft 504 kts 13°
2026-05-05 10:49 25.91282 -27.64890 37086 ft 503 kts 13°
2026-05-05 10:49 25.97898 -27.62322 37086 ft 503 kts 13°
2026-05-05 10:50 26.04515 -27.59752 37087 ft 502 kts 13°
2026-05-05 10:50 26.11085 -27.57196 37083 ft 503 kts 13°
2026-05-05 10:51 26.17692 -27.54623 37091 ft 501 kts 13°
2026-05-05 10:51 26.24282 -27.52052 37079 ft 500 kts 13°
2026-05-05 10:52 26.30865 -27.49483 37084 ft 500 kts 13°
2026-05-05 10:52 26.37401 -27.46929 37093 ft 501 kts 13°
2026-05-05 10:53 26.44016 -27.44344 37102 ft 504 kts 14°
2026-05-05 10:53 26.50634 -27.41748 37085 ft 503 kts 14°
2026-05-05 10:54 26.57239 -27.39155 37084 ft 502 kts 14°
2026-05-05 10:54 26.63802 -27.36577 37083 ft 502 kts 14°
2026-05-05 10:55 26.70410 -27.33979 37082 ft 502 kts 14°
2026-05-05 10:55 26.76964 -27.31400 37083 ft 501 kts 15°
2026-05-05 10:56 26.83535 -27.28808 37086 ft 500 kts 15°
2026-05-05 10:56 26.90105 -27.26215 37084 ft 500 kts 15°
2026-05-05 10:57 26.96675 -27.23618 37081 ft 500 kts 15°
2026-05-05 10:57 27.03203 -27.21036 37093 ft 500 kts 15°
2026-05-05 10:58 27.09754 -27.18441 37083 ft 498 kts 15°
2026-05-05 10:58 27.16302 -27.15843 37084 ft 499 kts 15°
2026-05-05 10:59 27.22863 -27.13237 37083 ft 500 kts 15°
2026-05-05 10:59 27.29389 -27.10642 37083 ft 500 kts 15°
2026-05-05 11:00 27.35953 -27.08029 37081 ft 498 kts 16°
2026-05-05 11:00 27.42484 -27.05424 37086 ft 497 kts 16°
2026-05-05 11:01 27.48969 -27.02836 37083 ft 497 kts 16°
2026-05-05 11:01 27.55498 -27.00227 37085 ft 497 kts 16°
2026-05-05 11:02 27.62025 -26.97616 37087 ft 497 kts 17°
2026-05-05 11:02 27.68491 -26.95024 37080 ft 495 kts 17°
2026-05-05 11:03 27.74981 -26.92420 37085 ft 494 kts 17°
2026-05-05 11:03 27.81473 -26.89813 37084 ft 494 kts 17°
2026-05-05 11:04 27.87963 -26.87202 37083 ft 494 kts 17°
2026-05-05 11:04 27.94421 -26.84602 37080 ft 496 kts 17°
2026-05-05 11:05 28.00929 -26.81978 37087 ft 496 kts 17°
2026-05-05 11:05 28.07449 -26.79345 37085 ft 496 kts 17°
2026-05-05 11:06 28.13960 -26.76713 37083 ft 496 kts 17°
2026-05-05 11:06 28.20469 -26.74079 37084 ft 495 kts 17°
2026-05-05 11:07 28.26914 -26.71466 37084 ft 493 kts 17°
2026-05-05 11:07 28.33383 -26.68840 37088 ft 493 kts 17°
2026-05-05 11:08 28.39843 -26.66215 37084 ft 493 kts 17°
2026-05-05 11:08 28.46315 -26.63582 37084 ft 493 kts 17°
2026-05-05 11:09 28.52731 -26.60968 37081 ft 491 kts 18°
2026-05-05 11:09 28.59164 -26.58343 37098 ft 490 kts 18°
2026-05-05 11:10 28.65597 -26.55715 37088 ft 490 kts 18°
2026-05-05 11:10 28.72003 -26.53096 37088 ft 491 kts 18°
2026-05-05 11:11 28.78439 -26.50460 37091 ft 490 kts 18°
2026-05-05 11:11 28.84860 -26.47827 37088 ft 489 kts 18°
2026-05-05 11:12 28.91230 -26.45211 37089 ft 489 kts 18°
2026-05-05 11:12 28.97636 -26.42577 37088 ft 489 kts 18°
2026-05-05 11:13 29.04045 -26.39939 37088 ft 489 kts 18°
2026-05-05 11:13 29.10412 -26.37314 37088 ft 487 kts 18°
2026-05-05 11:14 29.16799 -26.34677 37089 ft 487 kts 18°
2026-05-05 11:14 29.23180 -26.32039 37091 ft 487 kts 18°
2026-05-05 11:15 29.29561 -26.29399 37092 ft 487 kts 18°
2026-05-05 11:15 29.35893 -26.26774 37100 ft 486 kts 18°
2026-05-05 11:16 29.42250 -26.24134 37094 ft 486 kts 18°
2026-05-05 11:16 29.48623 -26.21486 37100 ft 486 kts 18°
2026-05-05 11:17 29.54997 -26.18833 37101 ft 487 kts 18°
2026-05-05 11:17 29.61329 -26.16194 37100 ft 486 kts 18°
2026-05-05 11:18 29.67692 -26.13541 37101 ft 485 kts 18°
2026-05-05 11:18 29.73999 -26.10907 37104 ft 484 kts 18°
2026-05-05 11:19 29.80344 -26.08254 37105 ft 484 kts 18°
2026-05-05 11:19 29.86682 -26.05600 37105 ft 485 kts 18°
2026-05-05 11:20 29.93028 -26.02936 37110 ft 484 kts 18°
2026-05-05 11:20 29.99323 -26.00293 37107 ft 484 kts 19°
2026-05-05 11:21 30.05690 -25.97742 37114 ft 483 kts 16°
2026-05-05 11:21 30.12102 -25.95368 37114 ft 483 kts 16°
2026-05-05 11:22 30.18477 -25.93006 37125 ft 485 kts 16°
2026-05-05 11:22 30.24889 -25.90588 37122 ft 484 kts 16°
2026-05-05 11:23 30.31297 -25.88155 37120 ft 484 kts 17°
2026-05-05 11:23 30.37704 -25.85708 37127 ft 484 kts 17°
2026-05-05 11:24 30.44064 -25.83284 37123 ft 484 kts 17°
2026-05-05 11:24 30.50465 -25.80841 37134 ft 483 kts 16°
2026-05-05 11:25 30.56849 -25.78408 37125 ft 482 kts 16°
2026-05-05 11:25 30.63187 -25.75977 37130 ft 482 kts 16°
2026-05-05 11:26 30.69570 -25.73527 37139 ft 482 kts 17°
2026-05-05 11:26 30.75953 -25.71082 37139 ft 482 kts 16°
2026-05-05 11:27 30.82331 -25.68638 37146 ft 482 kts 17°
2026-05-05 11:27 30.88666 -25.66199 37144 ft 482 kts 15°
2026-05-05 11:28 30.93967 -25.64158 37139 ft 482 kts 16°
2026-05-05 11:28 31.00359 -25.61698 37147 ft 484 kts 16°
2026-05-05 11:29 31.06748 -25.59227 37146 ft 483 kts 16°
2026-05-05 11:29 31.13138 -25.56754 37154 ft 483 kts 17°
2026-05-05 11:30 31.19523 -25.54279 37152 ft 483 kts 16°
2026-05-05 11:30 31.25861 -25.51816 37157 ft 483 kts 16°
2026-05-05 11:31 31.32237 -25.49340 37160 ft 482 kts 16°
2026-05-05 11:31 31.38605 -25.46866 37170 ft 481 kts 16°
2026-05-05 11:32 31.44962 -25.44392 37167 ft 481 kts 16°
2026-05-05 11:32 31.51283 -25.41929 37170 ft 481 kts 17°
2026-05-05 11:33 31.57648 -25.39442 37167 ft 481 kts 16°
2026-05-05 11:33 31.63988 -25.36956 37163 ft 479 kts 16°
2026-05-05 11:34 31.70276 -25.34493 37174 ft 479 kts 16°
2026-05-05 11:34 31.76605 -25.32008 37173 ft 479 kts 17°
2026-05-05 11:35 31.82935 -25.29519 37175 ft 478 kts 17°
2026-05-05 11:35 31.89217 -25.27049 37180 ft 477 kts 17°
2026-05-05 11:36 31.95520 -25.24566 37184 ft 476 kts 16°
2026-05-05 11:36 32.01813 -25.22081 37191 ft 477 kts 16°
2026-05-05 11:37 32.08069 -25.19607 37192 ft 477 kts 16°
2026-05-05 11:37 32.14362 -25.17115 37192 ft 475 kts 16°
2026-05-05 11:38 32.20639 -25.14631 37189 ft 474 kts 17°
2026-05-05 11:38 32.26866 -25.12159 37197 ft 474 kts 17°
2026-05-05 11:39 32.33131 -25.09667 37205 ft 475 kts 16°
2026-05-05 11:39 32.39396 -25.07168 37208 ft 474 kts 16°
2026-05-05 11:40 32.45603 -25.04692 37209 ft 472 kts 16°
2026-05-05 11:40 32.51848 -25.02206 37216 ft 473 kts 17°
2026-05-05 11:41 32.58101 -24.99707 37212 ft 475 kts 17°
2026-05-05 11:41 32.64370 -24.97199 37216 ft 475 kts 17°
2026-05-05 11:42 32.70596 -24.94697 37215 ft 474 kts 16°
2026-05-05 11:42 32.76853 -24.92183 37217 ft 474 kts 17°
2026-05-05 11:43 32.83105 -24.89668 37226 ft 474 kts 16°
2026-05-05 11:43 32.89362 -24.87150 37225 ft 474 kts 17°
2026-05-05 11:44 32.95568 -24.84649 37224 ft 473 kts 16°
2026-05-05 11:44 33.01802 -24.82130 37234 ft 473 kts 17°
2026-05-05 11:45 33.08042 -24.79604 37232 ft 473 kts 16°
2026-05-05 11:45 33.14283 -24.77075 37235 ft 473 kts 17°
2026-05-05 11:46 33.20476 -24.74565 37236 ft 472 kts 17°
2026-05-05 11:46 33.26690 -24.72038 37236 ft 470 kts 17°
2026-05-05 11:47 33.32891 -24.69512 37246 ft 470 kts 16°
2026-05-05 11:47 33.39078 -24.66990 37251 ft 473 kts 17°
2026-05-05 11:48 33.48434 -24.63169 37246 ft 473 kts 17°
2026-05-05 11:48 33.54671 -24.60614 37251 ft 473 kts 17°
2026-05-05 11:49 33.60874 -24.58074 37251 ft 473 kts 17°
2026-05-05 11:49 33.67116 -24.55515 37252 ft 473 kts 17°
2026-05-05 11:50 33.73354 -24.52950 37261 ft 473 kts 17°
2026-05-05 11:50 33.79538 -24.50402 37258 ft 472 kts 17°
2026-05-05 11:51 33.85761 -24.47835 37260 ft 472 kts 17°
2026-05-05 11:51 33.91976 -24.45267 37262 ft 472 kts 17°
2026-05-05 11:52 33.98150 -24.42713 37268 ft 471 kts 17°
2026-05-05 11:52 34.04346 -24.40148 37270 ft 469 kts 17°
2026-05-05 11:53 34.10522 -24.37585 37273 ft 470 kts 17°
2026-05-05 11:53 34.16696 -24.35022 37274 ft 473 kts 17°
2026-05-05 11:54 34.22928 -24.32427 37274 ft 473 kts 17°
2026-05-05 11:54 34.29139 -24.29837 37273 ft 470 kts 17°
2026-05-05 11:55 34.35323 -24.27255 37279 ft 469 kts 17°
2026-05-05 11:55 34.41458 -24.24690 37276 ft 469 kts 17°
2026-05-05 11:56 34.47636 -24.22103 37284 ft 469 kts 17°
2026-05-05 11:56 34.53806 -24.19515 37284 ft 467 kts 17°
2026-05-05 11:57 34.59913 -24.16948 37287 ft 466 kts 17°
2026-05-05 11:57 34.66052 -24.14365 37289 ft 466 kts 17°
2026-05-05 11:58 34.72194 -24.11777 37290 ft 466 kts 17°
2026-05-05 11:58 34.78286 -24.09205 37293 ft 465 kts 17°
2026-05-05 11:59 34.84390 -24.06624 37302 ft 463 kts 17°
2026-05-05 11:59 34.90500 -24.04038 37295 ft 465 kts 17°
2026-05-05 12:00 34.96635 -24.01437 37301 ft 466 kts 17°
2026-05-05 12:00 35.02490 -23.98110 37302 ft 468 kts 27°
2026-05-05 12:01 35.08093 -23.94083 37300 ft 465 kts 29°
2026-05-05 12:01 35.13623 -23.89957 37301 ft 465 kts 29°
2026-05-05 12:02 35.19113 -23.85849 37303 ft 465 kts 29°
2026-05-05 12:02 35.24647 -23.81721 37303 ft 465 kts 29°
2026-05-05 12:03 35.30181 -23.77596 37308 ft 464 kts 29°
2026-05-05 12:03 35.35693 -23.73482 37310 ft 463 kts 29°
2026-05-05 12:04 35.41179 -23.69382 37304 ft 465 kts 29°
2026-05-05 12:04 35.46700 -23.65247 37303 ft 465 kts 29°
2026-05-05 12:05 35.52226 -23.61101 37312 ft 465 kts 29°
2026-05-05 12:05 35.57752 -23.56949 37314 ft 464 kts 29°
2026-05-05 12:06 35.63252 -23.52809 37314 ft 463 kts 29°
2026-05-05 12:06 35.68716 -23.48691 37311 ft 463 kts 29°
2026-05-05 12:07 35.74211 -23.44542 37315 ft 462 kts 29°
2026-05-05 12:07 35.79698 -23.40392 37307 ft 464 kts 29°
2026-05-05 12:08 35.85182 -23.36238 37312 ft 465 kts 29°
2026-05-05 12:08 35.90683 -23.32063 37326 ft 462 kts 29°
2026-05-05 12:09 35.96164 -23.27897 37331 ft 462 kts 29°
2026-05-05 12:09 36.01643 -23.23726 37311 ft 462 kts 29°
2026-05-05 12:10 36.07091 -23.19572 37314 ft 462 kts 29°
2026-05-05 12:10 36.12564 -23.15391 37319 ft 462 kts 29°
2026-05-05 12:11 36.18038 -23.11203 37333 ft 462 kts 30°
2026-05-05 12:11 36.23519 -23.07003 37335 ft 464 kts 29°
2026-05-05 12:12 36.28986 -23.02806 37333 ft 465 kts 30°
2026-05-05 12:12 36.34487 -22.98576 37330 ft 465 kts 30°
2026-05-05 12:13 36.39986 -22.94340 37327 ft 464 kts 29°
2026-05-05 12:13 36.45470 -22.90108 37325 ft 463 kts 29°
2026-05-05 12:14 36.50909 -22.85905 37329 ft 463 kts 30°
2026-05-05 12:14 36.56389 -22.81663 37329 ft 463 kts 30°
2026-05-05 12:15 36.60942 -22.78134 37347 ft 463 kts 30°
2026-05-05 12:15 36.67319 -22.73181 37330 ft 464 kts 29°
2026-05-05 12:16 36.71912 -22.69607 37329 ft 463 kts 29°
2026-05-05 12:16 36.77352 -22.65368 37330 ft 463 kts 29°
2026-05-05 12:17 36.82823 -22.61098 37328 ft 463 kts 30°
2026-05-05 12:17 36.88297 -22.56819 37324 ft 463 kts 30°
2026-05-05 12:18 36.93729 -22.52564 37333 ft 462 kts 29°
2026-05-05 12:18 36.99181 -22.48286 37330 ft 461 kts 29°
2026-05-05 12:19 37.04624 -22.44009 37337 ft 462 kts 30°
2026-05-05 12:19 37.10089 -22.39708 37333 ft 464 kts 30°
2026-05-05 12:20 37.15533 -22.35415 37332 ft 465 kts 30°
2026-05-05 12:20 37.21009 -22.31088 37336 ft 463 kts 30°
2026-05-05 12:21 37.26463 -22.26771 37334 ft 462 kts 30°
2026-05-05 12:21 37.31870 -22.22486 37336 ft 462 kts 30°
2026-05-05 12:22 37.37309 -22.18167 37341 ft 462 kts 30°
2026-05-05 12:22 37.42747 -22.13842 37340 ft 462 kts 30°
2026-05-05 12:23 37.48175 -22.09516 37343 ft 460 kts 30°
2026-05-05 12:23 37.53546 -22.05229 37342 ft 459 kts 30°
2026-05-05 12:24 37.58952 -22.00906 37340 ft 459 kts 30°
2026-05-05 12:24 37.64349 -21.96583 37337 ft 459 kts 30°
2026-05-05 12:25 37.69709 -21.92283 37342 ft 459 kts 30°
2026-05-05 12:25 37.75100 -21.87949 37341 ft 458 kts 30°
2026-05-05 12:26 37.80475 -21.83620 37342 ft 457 kts 30°
2026-05-05 12:26 37.85845 -21.79290 37337 ft 457 kts 30°
2026-05-05 12:27 37.91206 -21.74959 37338 ft 460 kts 30°
2026-05-05 12:27 37.96604 -21.70590 37335 ft 460 kts 30°
2026-05-05 12:28 38.01995 -21.66217 37342 ft 458 kts 30°
2026-05-05 12:28 38.07335 -21.61879 37341 ft 458 kts 30°
2026-05-05 12:29 38.12706 -21.57508 37343 ft 458 kts 30°
2026-05-05 12:29 38.18077 -21.53130 37343 ft 458 kts 30°
2026-05-05 12:30 38.23411 -21.48774 37366 ft 457 kts 30°
2026-05-05 12:30 38.28763 -21.44395 37353 ft 458 kts 30°
2026-05-05 12:31 38.34139 -21.39990 37346 ft 459 kts 30°
2026-05-05 12:31 38.39520 -21.35573 37350 ft 459 kts 30°
2026-05-05 12:32 38.44867 -21.31175 37349 ft 459 kts 30°
2026-05-05 12:32 38.50244 -21.26744 37354 ft 459 kts 30°
2026-05-05 12:33 38.55608 -21.22315 37351 ft 457 kts 30°
2026-05-05 12:33 38.60923 -21.17920 37349 ft 457 kts 30°
2026-05-05 12:34 38.66266 -21.13494 37369 ft 457 kts 30°
2026-05-05 12:34 38.71638 -21.09038 37348 ft 461 kts 30°
2026-05-05 12:35 38.76996 -21.04584 37351 ft 462 kts 30°
2026-05-05 12:35 38.82388 -21.00091 37350 ft 462 kts 30°
2026-05-05 12:36 38.87778 -20.95593 37351 ft 462 kts 30°
2026-05-05 12:36 38.93132 -20.91116 37348 ft 462 kts 30°
2026-05-05 12:37 38.98518 -20.86605 37343 ft 462 kts 30°
2026-05-05 12:37 39.03897 -20.82092 37350 ft 460 kts 30°
2026-05-05 12:38 39.09269 -20.77576 37350 ft 462 kts 30°
2026-05-05 12:38 39.14664 -20.73034 37349 ft 463 kts 30°
2026-05-05 12:39 39.20029 -20.68507 37349 ft 463 kts 30°
2026-05-05 12:39 39.25421 -20.63948 37349 ft 463 kts 30°
2026-05-05 12:40 39.30816 -20.59379 37346 ft 463 kts 30°
2026-05-05 12:40 39.36198 -20.54812 37347 ft 462 kts 30°
2026-05-05 12:41 39.41546 -20.50266 37349 ft 462 kts 30°
2026-05-05 12:41 39.46926 -20.45685 37352 ft 463 kts 30°
2026-05-05 12:42 39.52326 -20.41077 37351 ft 465 kts 30°
2026-05-05 12:42 39.57696 -20.36486 37346 ft 464 kts 30°
2026-05-05 12:43 39.63091 -20.31865 37347 ft 464 kts 31°
2026-05-05 12:43 39.68493 -20.27229 37347 ft 464 kts 31°
2026-05-05 12:44 39.73850 -20.22623 37347 ft 464 kts 31°
2026-05-05 12:44 39.79243 -20.17978 37351 ft 464 kts 30°
2026-05-05 12:45 39.84615 -20.13340 37359 ft 463 kts 31°
2026-05-05 12:45 39.90001 -20.08685 37346 ft 466 kts 31°
2026-05-05 12:46 39.95377 -20.04028 37347 ft 466 kts 31°
2026-05-05 12:46 40.00707 -19.99157 37619 ft 468 kts 36°
2026-05-05 12:47 40.03243 -19.96506 38064 ft 465 kts 36°
2026-05-05 12:47 40.05749 -19.93839 38479 ft 463 kts 36°
2026-05-05 12:47 40.08241 -19.91158 38762 ft 463 kts 36°
2026-05-05 12:47 40.10723 -19.88474 39005 ft 463 kts 36°
2026-05-05 12:48 40.13170 -19.85820 39217 ft 463 kts 36°
2026-05-05 12:48 40.15663 -19.83116 39317 ft 466 kts 36°
2026-05-05 12:48 40.20676 -19.77675 39342 ft 468 kts 37°
2026-05-05 12:49 40.25714 -19.72201 39341 ft 470 kts 37°
2026-05-05 12:49 40.30751 -19.66717 39340 ft 470 kts 36°
2026-05-05 12:50 40.35749 -19.61266 39341 ft 469 kts 36°
2026-05-05 12:50 40.40774 -19.55776 39339 ft 469 kts 37°
2026-05-05 12:51 40.45793 -19.50281 39332 ft 469 kts 37°
2026-05-05 12:51 40.50778 -19.44812 39340 ft 469 kts 37°
2026-05-05 12:52 40.55808 -19.39283 39338 ft 472 kts 37°
2026-05-05 12:52 40.60846 -19.33732 39333 ft 471 kts 37°
2026-05-05 12:53 40.65880 -19.28176 39332 ft 471 kts 37°
2026-05-05 12:53 40.70878 -19.22647 39333 ft 471 kts 37°
2026-05-05 12:54 40.78419 -19.14285 39333 ft 471 kts 37°
2026-05-05 12:55 40.83449 -19.08693 39335 ft 472 kts 37°
2026-05-05 12:55 40.88459 -19.03114 39328 ft 474 kts 37°
2026-05-05 12:56 40.93497 -18.97489 39327 ft 474 kts 37°
2026-05-05 12:56 40.98534 -18.91854 39328 ft 474 kts 37°
2026-05-05 12:57 41.03575 -18.86203 39328 ft 474 kts 37°
2026-05-05 12:57 41.08575 -18.80587 39331 ft 474 kts 37°
2026-05-05 12:58 41.13606 -18.74924 39332 ft 474 kts 37°
2026-05-05 12:58 41.18634 -18.69252 39310 ft 473 kts 37°
2026-05-05 12:59 41.23629 -18.63607 39310 ft 474 kts 37°
2026-05-05 12:59 41.28650 -18.57919 39325 ft 474 kts 37°
2026-05-05 13:00 41.36173 -18.49376 39324 ft 473 kts 37°
2026-05-05 13:01 41.46179 -18.37972 39320 ft 476 kts 37°
2026-05-05 13:01 41.50358 -18.33195 39319 ft 476 kts 37°
2026-05-05 13:02 41.55390 -18.27430 39320 ft 476 kts 37°
2026-05-05 13:02 41.60418 -18.21658 39317 ft 476 kts 37°
2026-05-05 13:03 41.65404 -18.15923 39317 ft 476 kts 37°
2026-05-05 13:03 41.70423 -18.10137 39318 ft 476 kts 37°
2026-05-05 13:04 41.75448 -18.04332 39317 ft 477 kts 38°
2026-05-05 13:04 41.80488 -17.98498 39324 ft 478 kts 38°
2026-05-05 13:05 41.85486 -17.92698 39311 ft 478 kts 38°
2026-05-05 13:05 41.90516 -17.86848 39306 ft 478 kts 38°
2026-05-05 13:06 41.95544 -17.80990 39306 ft 478 kts 38°
2026-05-05 13:06 42.00568 -17.75123 39305 ft 478 kts 38°
2026-05-05 13:07 42.05557 -17.69285 39312 ft 479 kts 38°
2026-05-05 13:07 42.10591 -17.63380 39309 ft 479 kts 38°
2026-05-05 13:08 42.15621 -17.57468 39303 ft 479 kts 38°
2026-05-05 13:08 42.20644 -17.51550 39303 ft 479 kts 38°
2026-05-05 13:09 42.25637 -17.45655 39300 ft 479 kts 38°
2026-05-05 13:09 42.30658 -17.39714 39316 ft 479 kts 38°
2026-05-05 13:10 42.35644 -17.33802 39305 ft 480 kts 38°
2026-05-05 13:10 42.40671 -17.27829 39296 ft 480 kts 38°
2026-05-05 13:11 42.45698 -17.21841 39296 ft 480 kts 38°
2026-05-05 13:11 42.50723 -17.15843 39292 ft 480 kts 38°
2026-05-05 13:12 42.55708 -17.09877 39288 ft 480 kts 38°
2026-05-05 13:12 42.60724 -17.03863 39287 ft 480 kts 38°
2026-05-05 13:13 42.65730 -16.97847 39287 ft 481 kts 38°
2026-05-05 13:13 42.70748 -16.91803 39288 ft 482 kts 38°
2026-05-05 13:14 42.75733 -16.85785 39284 ft 482 kts 38°
2026-05-05 13:14 42.80746 -16.79719 39284 ft 481 kts 38°
2026-05-05 13:15 42.85745 -16.73657 39282 ft 480 kts 38°
2026-05-05 13:15 42.90741 -16.67587 39285 ft 481 kts 38°
2026-05-05 13:16 42.95715 -16.61529 39279 ft 482 kts 39°
2026-05-05 13:16 43.00714 -16.55426 39279 ft 482 kts 39°
2026-05-05 13:17 43.05707 -16.49316 39276 ft 482 kts 39°
2026-05-05 13:17 43.10707 -16.43183 39276 ft 481 kts 39°
2026-05-05 13:18 43.15697 -16.37049 39276 ft 481 kts 39°
2026-05-05 13:18 43.20656 -16.30940 39272 ft 482 kts 39°
2026-05-05 13:19 43.25652 -16.24772 39280 ft 483 kts 39°
2026-05-05 13:19 43.30651 -16.18583 39266 ft 482 kts 39°
2026-05-05 13:20 43.35602 -16.12441 39268 ft 482 kts 39°
2026-05-05 13:20 43.40581 -16.06250 39260 ft 482 kts 39°
2026-05-05 13:21 43.45560 -16.00044 39263 ft 482 kts 39°
2026-05-05 13:21 43.50542 -15.93821 39266 ft 483 kts 39°
2026-05-05 13:22 43.55519 -15.87588 39256 ft 483 kts 39°
2026-05-05 13:22 43.60497 -15.81340 39257 ft 483 kts 39°
2026-05-05 13:23 43.65438 -15.75125 39252 ft 483 kts 39°
2026-05-05 13:23 43.70411 -15.68854 39253 ft 483 kts 39°
2026-05-05 13:24 43.75377 -15.62578 39259 ft 483 kts 39°
2026-05-05 13:24 43.80329 -15.56306 39251 ft 489 kts 39°
2026-05-05 13:25 43.85405 -15.49865 39248 ft 497 kts 39°
2026-05-05 13:25 43.90513 -15.43361 39246 ft 498 kts 39°
2026-05-05 13:26 43.95589 -15.36881 39253 ft 498 kts 40°
2026-05-05 13:26 44.00691 -15.30352 39241 ft 498 kts 40°
2026-05-05 13:27 44.05790 -15.23813 39238 ft 498 kts 40°
2026-05-05 13:27 44.10849 -15.17311 39238 ft 498 kts 40°
2026-05-05 13:28 44.15936 -15.10755 39238 ft 498 kts 40°
2026-05-05 13:28 44.21017 -15.04191 39249 ft 498 kts 40°
2026-05-05 13:29 44.26102 -14.97607 39236 ft 498 kts 40°
2026-05-05 13:29 44.31150 -14.91054 39235 ft 498 kts 40°
2026-05-05 13:30 44.36230 -14.84443 39235 ft 498 kts 40°
2026-05-05 13:30 44.41305 -14.77822 39231 ft 498 kts 40°
2026-05-05 13:31 44.46341 -14.71235 39233 ft 498 kts 40°
2026-05-05 13:31 44.51404 -14.64596 39226 ft 498 kts 40°
2026-05-05 13:32 44.56467 -14.57942 39225 ft 498 kts 40°
2026-05-05 13:32 44.61490 -14.51324 39225 ft 498 kts 40°
2026-05-05 13:33 44.66548 -14.44641 39231 ft 498 kts 40°
2026-05-05 13:33 44.71594 -14.37958 39222 ft 498 kts 40°
2026-05-05 13:34 44.76645 -14.31252 39219 ft 498 kts 40°
2026-05-05 13:34 44.81656 -14.24583 39214 ft 498 kts 40°
2026-05-05 13:35 44.86700 -14.17853 39225 ft 498 kts 41°
2026-05-05 13:35 44.91739 -14.11111 39209 ft 498 kts 41°
2026-05-05 13:36 44.96736 -14.04410 39209 ft 498 kts 41°
2026-05-05 13:36 45.02110 -13.98305 39207 ft 494 kts 31°
2026-05-05 13:37 45.07920 -13.93081 39212 ft 494 kts 29°
2026-05-05 13:37 45.13752 -13.88035 39216 ft 493 kts 29°
2026-05-05 13:38 45.19615 -13.82968 39212 ft 493 kts 29°
2026-05-05 13:38 45.25475 -13.77868 39205 ft 493 kts 29°
2026-05-05 13:39 45.31322 -13.72752 39206 ft 493 kts 29°
2026-05-05 13:39 45.37129 -13.67656 39205 ft 493 kts 29°
2026-05-05 13:40 45.42971 -13.62517 39203 ft 492 kts 29°
2026-05-05 13:40 45.48805 -13.57373 39200 ft 492 kts 29°
2026-05-05 13:41 45.54592 -13.52259 39203 ft 492 kts 30°
2026-05-05 13:41 45.60415 -13.47100 39200 ft 492 kts 30°
2026-05-05 13:42 45.66239 -13.41927 39200 ft 492 kts 30°
2026-05-05 13:42 45.72061 -13.36743 39195 ft 492 kts 30°
2026-05-05 13:43 45.77830 -13.31593 39196 ft 491 kts 30°
2026-05-05 13:43 45.83640 -13.26395 39192 ft 491 kts 30°
2026-05-05 13:44 45.89449 -13.21184 39195 ft 492 kts 30°
2026-05-05 13:44 45.95222 -13.15993 39191 ft 492 kts 30°
2026-05-05 13:45 46.01022 -13.10764 39196 ft 491 kts 30°
2026-05-05 13:45 46.06818 -13.05524 39191 ft 491 kts 30°
2026-05-05 13:46 46.12572 -13.00311 39191 ft 491 kts 30°
2026-05-05 13:46 46.18362 -12.95052 39185 ft 491 kts 30°
2026-05-05 13:47 46.24144 -12.89786 39189 ft 491 kts 30°
2026-05-05 13:47 46.29929 -12.84505 39185 ft 491 kts 30°
2026-05-05 13:48 46.35672 -12.79249 39174 ft 491 kts 30°
2026-05-05 13:48 46.41448 -12.73949 39166 ft 491 kts 30°
2026-05-05 13:49 46.47221 -12.68638 39182 ft 491 kts 30°
2026-05-05 13:49 46.52959 -12.63347 39182 ft 491 kts 30°
2026-05-05 13:50 46.58721 -12.58019 39169 ft 491 kts 30°
2026-05-05 13:50 46.63551 -12.53543 39179 ft 491 kts 31°
2026-05-05 13:51 46.69280 -12.48221 39177 ft 491 kts 31°
2026-05-05 13:51 46.75047 -12.42850 39166 ft 491 kts 31°
2026-05-05 13:52 46.80815 -12.37464 39167 ft 491 kts 31°
2026-05-05 13:52 46.86540 -12.32105 39174 ft 491 kts 31°
2026-05-05 13:53 46.92297 -12.26701 39170 ft 491 kts 31°
2026-05-05 13:53 46.98047 -12.21291 39170 ft 491 kts 31°
2026-05-05 13:54 47.03759 -12.15902 39168 ft 491 kts 31°
2026-05-05 13:54 47.09513 -12.10459 39170 ft 491 kts 31°
2026-05-05 13:55 47.15225 -12.05042 39165 ft 491 kts 31°
2026-05-05 13:55 47.20969 -11.99581 39165 ft 491 kts 31°
2026-05-05 13:56 47.26714 -11.94103 39164 ft 491 kts 31°
2026-05-05 13:56 47.32410 -11.88660 39162 ft 491 kts 31°
2026-05-05 13:57 47.38141 -11.83167 39159 ft 491 kts 31°
2026-05-05 13:57 47.43875 -11.77658 39159 ft 491 kts 31°
2026-05-05 13:58 47.49571 -11.72171 39165 ft 491 kts 31°
2026-05-05 13:58 47.55299 -11.66638 39158 ft 491 kts 31°
2026-05-05 13:59 47.63874 -11.58328 39157 ft 491 kts 31°
2026-05-05 14:00 47.72420 -11.50012 39154 ft 491 kts 31°
2026-05-05 14:00 47.78141 -11.44427 39155 ft 491 kts 32°
2026-05-05 14:01 47.83854 -11.38835 39150 ft 491 kts 32°
2026-05-05 14:01 47.89526 -11.33268 39148 ft 491 kts 32°
2026-05-05 14:02 47.95246 -11.27639 39151 ft 492 kts 32°
2026-05-05 14:02 48.00964 -11.21997 39145 ft 492 kts 32°
2026-05-05 14:03 48.06633 -11.16388 39146 ft 492 kts 32°
2026-05-05 14:03 48.12342 -11.10724 39145 ft 491 kts 32°
2026-05-05 14:04 48.18044 -11.05052 39140 ft 491 kts 32°
2026-05-05 14:04 48.23705 -10.99405 39140 ft 491 kts 32°
2026-05-05 14:05 48.29397 -10.93713 39140 ft 491 kts 32°
2026-05-05 14:05 48.35092 -10.88001 39138 ft 491 kts 32°
2026-05-05 14:06 48.40778 -10.82283 39147 ft 491 kts 32°
2026-05-05 14:06 48.46458 -10.76555 39141 ft 490 kts 32°
2026-05-05 14:07 48.52098 -10.70852 39132 ft 490 kts 32°
2026-05-05 14:07 48.57771 -10.65100 39132 ft 490 kts 32°
2026-05-05 14:08 48.63442 -10.59335 39130 ft 491 kts 32°
2026-05-05 14:08 48.69108 -10.53558 39132 ft 491 kts 32°
2026-05-05 14:09 48.74286 -10.46902 39132 ft 493 kts 46°
2026-05-05 14:09 48.78807 -10.39045 39126 ft 494 kts 48°
2026-05-05 14:10 48.83198 -10.31002 39124 ft 494 kts 49°
2026-05-05 14:10 48.87572 -10.22928 39124 ft 495 kts 49°
2026-05-05 14:11 48.91956 -10.14854 39121 ft 495 kts 49°
2026-05-05 14:11 48.96314 -10.06829 39121 ft 494 kts 49°
2026-05-05 14:12 49.00699 -9.98736 39119 ft 494 kts 49°
2026-05-05 14:12 49.04998 -9.90534 39113 ft 495 kts 50°
2026-05-05 14:13 49.09209 -9.82293 39116 ft 495 kts 50°
2026-05-05 14:13 49.13448 -9.74004 39112 ft 495 kts 50°
2026-05-05 14:14 49.17701 -9.65702 39110 ft 495 kts 50°
2026-05-05 14:14 49.21952 -9.57395 39107 ft 495 kts 50°
2026-05-05 14:15 49.26193 -9.49082 39105 ft 495 kts 50°
2026-05-05 14:15 49.30405 -9.40798 39102 ft 495 kts 50°
2026-05-05 14:16 49.34641 -9.32441 39108 ft 495 kts 50°
2026-05-05 14:16 49.38868 -9.24076 39098 ft 495 kts 51°
2026-05-05 14:17 49.43069 -9.15735 39103 ft 496 kts 51°
2026-05-05 14:17 49.47289 -9.07330 39098 ft 496 kts 51°
2026-05-05 14:18 49.51503 -8.98909 39105 ft 496 kts 51°
2026-05-05 14:18 49.55686 -8.90525 39100 ft 496 kts 51°
2026-05-05 14:19 49.59886 -8.82080 39097 ft 496 kts 51°
2026-05-05 14:19 49.64086 -8.73607 39097 ft 496 kts 51°
2026-05-05 14:20 49.68279 -8.65123 39094 ft 497 kts 51°
2026-05-05 14:20 49.72440 -8.56674 39098 ft 497 kts 51°
2026-05-05 14:21 49.76624 -8.48153 39094 ft 497 kts 51°
2026-05-05 14:21 49.80807 -8.39607 39094 ft 497 kts 51°
2026-05-05 14:22 49.84952 -8.31110 39089 ft 497 kts 51°
2026-05-05 14:22 49.89117 -8.22545 39091 ft 497 kts 51°
2026-05-05 14:23 49.93275 -8.13967 39089 ft 497 kts 52°
2026-05-05 14:23 49.97411 -8.05343 39085 ft 498 kts 54°
2026-05-05 14:24 50.00482 -7.95775 39083 ft 501 kts 71°
2026-05-05 14:24 50.02257 -7.85279 39080 ft 502 kts 75°
2026-05-05 14:25 50.03779 -7.74663 39082 ft 502 kts 76°
2026-05-05 14:25 50.05259 -7.64099 39078 ft 502 kts 76°
2026-05-05 14:26 50.06766 -7.53470 39078 ft 502 kts 76°
2026-05-05 14:26 50.08279 -7.42844 39073 ft 502 kts 76°
2026-05-05 14:27 50.09777 -7.32278 39075 ft 502 kts 76°
2026-05-05 14:27 50.11275 -7.21620 39073 ft 503 kts 76°
2026-05-05 14:28 50.12763 -7.10954 39067 ft 503 kts 76°
2026-05-05 14:28 50.14232 -7.00348 39067 ft 503 kts 76°
2026-05-05 14:29 50.15700 -6.89676 39064 ft 503 kts 76°
2026-05-05 14:29 50.17159 -6.78989 39061 ft 504 kts 76°
2026-05-05 14:30 50.18609 -6.68282 39061 ft 504 kts 77°
2026-05-05 14:30 50.20050 -6.57569 39056 ft 504 kts 77°
2026-05-05 14:31 50.21477 -6.46898 39056 ft 504 kts 77°
2026-05-05 14:31 50.22899 -6.36165 39056 ft 504 kts 77°
2026-05-05 14:32 50.24301 -6.25498 39034 ft 504 kts 77°
2026-05-05 14:32 50.25704 -6.14748 39036 ft 504 kts 77°
2026-05-05 14:33 50.27096 -6.04002 39049 ft 504 kts 78°
2026-05-05 14:33 50.28481 -5.93233 39044 ft 504 kts 78°
2026-05-05 14:34 50.29846 -5.82533 39038 ft 504 kts 78°
2026-05-05 14:34 50.31210 -5.71756 39037 ft 504 kts 78°
2026-05-05 14:35 50.32563 -5.60979 39039 ft 504 kts 78°
2026-05-05 14:35 50.33897 -5.50267 39026 ft 504 kts 78°
2026-05-05 14:36 50.35229 -5.39484 39033 ft 504 kts 78°
2026-05-05 14:36 50.36552 -5.28688 39017 ft 504 kts 78°
2026-05-05 14:37 50.37866 -5.17878 39018 ft 504 kts 78°
2026-05-05 14:37 50.39171 -5.07062 39014 ft 504 kts 78°
2026-05-05 14:38 50.40455 -4.96323 39028 ft 504 kts 79°
2026-05-05 14:38 50.41738 -4.85508 39020 ft 505 kts 79°
2026-05-05 14:39 50.43012 -4.74669 39019 ft 504 kts 79°
2026-05-05 14:39 50.44277 -4.63829 39014 ft 504 kts 79°
2026-05-05 14:40 50.45321 -4.54809 39005 ft 505 kts 79°
2026-05-05 14:40 50.46767 -4.42198 39001 ft 505 kts 79°
2026-05-05 14:41 50.47803 -4.33089 39000 ft 505 kts 79°
2026-05-05 14:41 50.49021 -4.22299 39000 ft 505 kts 79°
2026-05-05 14:42 50.50237 -4.11424 38998 ft 504 kts 80°
2026-05-05 14:42 50.51443 -4.00548 38985 ft 504 kts 80°
2026-05-05 14:43 50.52639 -3.89750 38987 ft 504 kts 80°
2026-05-05 14:43 50.53857 -3.78886 38982 ft 504 kts 80°
2026-05-05 14:44 50.55069 -3.68012 38978 ft 504 kts 80°
2026-05-05 14:44 50.55667 -3.62592 38868 ft 499 kts 80°
2026-05-05 14:44 50.56246 -3.57316 38639 ft 492 kts 80°
2026-05-05 14:45 50.56825 -3.52019 38365 ft 490 kts 80°
2026-05-05 14:45 50.57399 -3.46734 38084 ft 490 kts 80°
2026-05-05 14:45 50.57987 -3.41449 37819 ft 490 kts 79°
2026-05-05 14:45 50.58599 -3.36179 37539 ft 489 kts 79°
2026-05-05 14:46 50.59222 -3.30907 37272 ft 489 kts 79°
2026-05-05 14:46 50.59846 -3.25631 37003 ft 489 kts 79°
2026-05-05 14:46 50.60454 -3.20450 36560 ft 485 kts 80°
2026-05-05 14:46 50.61063 -3.15229 35935 ft 483 kts 81°
2026-05-05 14:47 50.61664 -3.10024 35286 ft 482 kts 81°
2026-05-05 14:47 50.62260 -3.04816 34597 ft 483 kts 81°
2026-05-05 14:47 50.62854 -2.99595 33834 ft 484 kts 82°
2026-05-05 14:47 50.63447 -2.94360 33002 ft 485 kts 81°
2026-05-05 14:48 50.64035 -2.89120 32230 ft 485 kts 82°
2026-05-05 14:48 50.64614 -2.83949 31438 ft 485 kts 82°
2026-05-05 14:48 50.65200 -2.78698 30621 ft 486 kts 82°
2026-05-05 14:48 50.65785 -2.73444 29756 ft 488 kts 82°
2026-05-05 14:49 50.66370 -2.68164 28852 ft 488 kts 82°
2026-05-05 14:49 50.66950 -2.62909 28219 ft 483 kts 82°
2026-05-05 14:49 50.67523 -2.57702 27610 ft 478 kts 81°
2026-05-05 14:49 50.68009 -2.52539 27009 ft 472 kts 86°
2026-05-05 14:50 50.68029 -2.47390 26637 ft 470 kts 94°
2026-05-05 14:50 50.67834 -2.42253 26352 ft 478 kts 96°
2026-05-05 14:50 50.67609 -2.37006 26025 ft 479 kts 95°
2026-05-05 14:50 50.67381 -2.31769 25708 ft 477 kts 95°
2026-05-05 14:51 50.67156 -2.26570 25376 ft 475 kts 95°
2026-05-05 14:51 50.66929 -2.21369 25063 ft 473 kts 95°
2026-05-05 14:51 50.66701 -2.16196 24739 ft 471 kts 95°
2026-05-05 14:51 50.66472 -2.11048 24422 ft 471 kts 95°
2026-05-05 14:52 50.66245 -2.05967 24111 ft 468 kts 95°
2026-05-05 14:52 50.66124 -2.00842 23782 ft 467 kts 91°
2026-05-05 14:52 50.66164 -1.95712 23465 ft 466 kts 89°
2026-05-05 14:52 50.66229 -1.90622 23127 ft 462 kts 89°
2026-05-05 14:53 50.66293 -1.85559 22838 ft 461 kts 89°
2026-05-05 14:53 50.66354 -1.80523 22525 ft 456 kts 89°
2026-05-05 14:53 50.66410 -1.75612 22205 ft 453 kts 89°
2026-05-05 14:53 50.66462 -1.70658 21906 ft 450 kts 89°
2026-05-05 14:54 50.66512 -1.65734 21601 ft 447 kts 89°
2026-05-05 14:54 50.66560 -1.60843 21298 ft 445 kts 89°
2026-05-05 14:54 50.66775 -1.55989 20994 ft 442 kts 80°
2026-05-05 14:54 50.67660 -1.51366 20570 ft 439 kts 66°
2026-05-05 14:55 50.68955 -1.47022 20073 ft 435 kts 63°
2026-05-05 14:55 50.70278 -1.42822 19599 ft 431 kts 63°
2026-05-05 14:55 50.71606 -1.38592 19154 ft 427 kts 63°
2026-05-05 14:55 50.72910 -1.34403 18681 ft 423 kts 64°
2026-05-05 14:56 50.74191 -1.30267 18232 ft 419 kts 64°
2026-05-05 14:56 50.75536 -1.26200 17744 ft 415 kts 58°
2026-05-05 14:56 50.77352 -1.22705 17280 ft 411 kts 42°
2026-05-05 14:56 50.79631 -1.20006 16837 ft 407 kts 34°
2026-05-05 14:57 50.81966 -1.17605 16402 ft 405 kts 33°
2026-05-05 14:57 50.84332 -1.15198 15970 ft 401 kts 33°
2026-05-05 14:57 50.86671 -1.12805 15536 ft 398 kts 33°
2026-05-05 14:57 50.88995 -1.10414 15086 ft 396 kts 33°
2026-05-05 14:58 50.91297 -1.08038 14672 ft 394 kts 33°
2026-05-05 14:58 50.93555 -1.05702 14248 ft 391 kts 33°
2026-05-05 14:58 50.95825 -1.03349 13832 ft 387 kts 33°
2026-05-05 14:58 50.98074 -1.01013 13373 ft 385 kts 33°
2026-05-05 14:59 51.00257 -0.98582 12945 ft 382 kts 39°
2026-05-05 14:59 51.02156 -0.95624 12595 ft 381 kts 47°
2026-05-05 14:59 51.03925 -0.92500 12241 ft 379 kts 48°
2026-05-05 14:59 51.05674 -0.89363 11897 ft 379 kts 48°
2026-05-05 15:00 51.07418 -0.86240 11544 ft 376 kts 48°
2026-05-05 15:00 51.08572 -0.84175 11344 ft 376 kts 48°
2026-05-05 15:00 51.10873 -0.80058 10867 ft 374 kts 48°
2026-05-05 15:00 51.12531 -0.77092 10669 ft 341 kts 48°
2026-05-05 15:01 51.14031 -0.74403 10417 ft 313 kts 48°
2026-05-05 15:01 51.15422 -0.71909 10157 ft 289 kts 48°
2026-05-05 15:01 51.16735 -0.69554 9784 ft 283 kts 47°
2026-05-05 15:01 51.18055 -0.67190 9444 ft 286 kts 47°
2026-05-05 15:02 51.19351 -0.64866 9186 ft 283 kts 48°
2026-05-05 15:02 51.20658 -0.62513 8916 ft 281 kts 48°
2026-05-05 15:02 51.21950 -0.60185 8648 ft 279 kts 48°
2026-05-05 15:02 51.23213 -0.57908 8456 ft 264 kts 48°
2026-05-05 15:03 51.24388 -0.55786 8240 ft 246 kts 47°
2026-05-05 15:03 51.25510 -0.53762 8013 ft 242 kts 47°
2026-05-05 15:03 51.26623 -0.51754 7800 ft 241 kts 48°
2026-05-05 15:03 51.27715 -0.49779 7568 ft 239 kts 48°
2026-05-05 15:04 51.28814 -0.47790 7379 ft 238 kts 47°
2026-05-05 15:04 51.29907 -0.45812 7131 ft 236 kts 47°
2026-05-05 15:04 51.31166 -0.44161 6970 ft 234 kts 24°
2026-05-05 15:04 51.32742 -0.43713 6821 ft 230 kts 355°
2026-05-05 15:05 51.35261 -0.46622 6007 ft 239 kts 297°
2026-05-05 15:05 51.35740 -0.49131 5653 ft 241 kts 280°
2026-05-05 15:05 51.35902 -0.51797 5289 ft 241 kts 275°
2026-05-05 15:06 51.35965 -0.54472 4993 ft 238 kts 273°
2026-05-05 15:06 51.35995 -0.57069 4853 ft 227 kts 274°
2026-05-05 15:06 51.36002 -0.59578 4504 ft 224 kts 272°
2026-05-05 15:06 51.36001 -0.62105 3984 ft 228 kts 272°
2026-05-05 15:07 51.36010 -0.64648 3589 ft 227 kts 273°
2026-05-05 15:07 51.36021 -0.67133 3303 ft 220 kts 272°
2026-05-05 15:07 51.36038 -0.69518 3053 ft 215 kts 273°
2026-05-05 15:07 51.36041 -0.71918 2989 ft 215 kts 273°
2026-05-05 15:08 51.36112 -0.74309 2974 ft 215 kts 283°
2026-05-05 15:08 51.36807 -0.76344 2985 ft 207 kts 318°
2026-05-05 15:08 51.38047 -0.77371 2991 ft 200 kts 349°
2026-05-05 15:08 51.39391 -0.77736 2976 ft 189 kts 355°
2026-05-05 15:09 51.40631 -0.77985 2983 ft 179 kts 355°
2026-05-05 15:09 51.41864 -0.78212 2985 ft 178 kts 355°
2026-05-05 15:09 51.43103 -0.78438 2985 ft 180 kts 355°
2026-05-05 15:09 51.44353 -0.78661 2987 ft 180 kts 356°
2026-05-05 15:10 51.45597 -0.78885 2986 ft 180 kts 355°
2026-05-05 15:10 51.46840 -0.79106 2987 ft 179 kts 356°
2026-05-05 15:10 51.48004 -0.78573 2989 ft 179 kts 39°
2026-05-05 15:10 51.48513 -0.76826 2993 ft 183 kts 87°
2026-05-05 15:11 51.48219 -0.74826 2992 ft 185 kts 103°
2026-05-05 15:11 51.47928 -0.72828 2989 ft 183 kts 98°
2026-05-05 15:11 51.47746 -0.70803 2900 ft 183 kts 92°
2026-05-05 15:11 51.47698 -0.68767 2647 ft 179 kts 88°
2026-05-05 15:12 51.47691 -0.66839 2393 ft 164 kts 88°
2026-05-05 15:12 51.47694 -0.65102 2170 ft 148 kts 86°
2026-05-05 15:12 51.47699 -0.63491 1992 ft 142 kts 86°
2026-05-05 15:12 51.47703 -0.61920 1796 ft 140 kts 86°
2026-05-05 15:13 51.47707 -0.60376 1613 ft 140 kts 86°
2026-05-05 15:13 51.47712 -0.58816 1423 ft 139 kts 87°
2026-05-05 15:13 51.47717 -0.57263 1232 ft 139 kts 85°
2026-05-05 15:13 51.47723 -0.55717 1039 ft 137 kts 85°
2026-05-05 15:14 51.47728 -0.54177 839 ft 140 kts 86°
2026-05-05 15:14 51.47734 -0.52614 644 ft 140 kts 87°
2026-05-05 15:14 51.47743 -0.51025 410 ft 142 kts 85°
2026-05-05 15:14 51.47754 -0.49449 222 ft 142 kts 88°
2026-05-05 15:15 51.47751 -0.47883 96 ft 139 kts 88°
2026-05-05 15:15 51.47759 -0.46667 98 ft 71 kts 90°
2026-05-05 15:15 51.47754 -0.46247 96 ft 10 kts 110°
2026-05-05 15:15 51.47690 -0.46127 96 ft 17 kts 144°
2026-05-05 15:16 51.47639 -0.46073 96 ft 0 kts 149°
2026-05-05 15:16 51.47646 -0.46079 95 ft 2 kts 149°
2026-05-05 15:16 51.47655 -0.46088 96 ft 0 kts 149°
2026-05-05 15:18 51.47647 -0.46081 95 ft 6 kts 149°
2026-05-05 15:18 51.47554 -0.46074 96 ft 18 kts 197°
2026-05-05 15:18 51.47514 -0.46248 93 ft 19 kts 270°
2026-05-05 15:18 51.47514 -0.46476 95 ft 22 kts 269°
2026-05-05 15:19 51.47510 -0.46724 95 ft 23 kts 258°
2026-05-05 15:19 51.47492 -0.46992 92 ft 25 kts 269°
2026-05-05 15:19 51.47491 -0.47286 92 ft 28 kts 270°
2026-05-05 15:19 51.47491 -0.47572 92 ft 18 kts 270°
2026-05-05 15:20 51.47491 -0.47788 92 ft 21 kts 268°
2026-05-05 15:20 51.47489 -0.48034 94 ft 20 kts 270°
2026-05-05 15:20 51.47489 -0.48190 96 ft 9 kts 270°
2026-05-05 15:20 51.47488 -0.48285 94 ft 2 kts 270°
2026-05-05 15:21 51.47485 -0.48333 96 ft 6 kts 258°
2026-05-05 15:21 51.47454 -0.48358 94 ft 7 kts 183°
2026-05-05 15:21 51.47379 -0.48360 93 ft 14 kts 181°
2026-05-05 15:21 51.47320 -0.48331 94 ft 8 kts 119°
2026-05-05 15:22 51.47315 -0.48240 93 ft 1 kts 91°
2026-05-05 15:22 51.47315 -0.48230 92 ft 0 kts 90°